GFSCGP_sfc_rhum_078.txt.gz
RH
15 19 19 18 24 22 21 22 22 16 12 13 15 13 11 11 11 15 17 17 20 26 26 31 37 42 45 58 70 79 94 97 97 98 98 98 97 94 96 92 90 87 73 70
22 24 17 16 14 16 18 21 23 19 14 13 13 13 11 10 11 11 12 16 17 22 25 32 40 45 51 59 68 82 86 91 93 91 88 89 91 89 85 88 79 76 72 64
39 31 24 23 24 20 21 26 26 23 18 15 15 16 15 12 10 10 10 10 13 19 26 33 42 50 54 60 65 69 76 85 89 85 84 87 91 92 91 94 89 85 80 63
34 30 32 36 49 45 41 25 24 22 25 31 17 24 16 13 13 12 11 13 14 14 22 30 40 49 56 57 64 65 77 76 84 86 88 90 90 95 88 86 84 83 84 79
34 38 41 49 59 45 51 33 33 36 26 28 22 24 19 14 14 12 12 13 16 16 19 27 37 43 48 54 64 64 73 73 79 84 84 88 88 82 80 88 91 88 88 87
27 24 36 52 51 37 38 36 40 36 29 38 26 26 25 18 16 12 11 13 14 16 18 23 33 39 44 52 61 66 71 75 77 82 86 82 83 84 82 90 94 95 91 88
29 29 35 46 58 48 39 39 75 66 49 47 23 26 24 17 14 13 15 17 15 16 20 24 32 38 44 54 61 62 70 70 77 84 86 86 83 81 88 83 84 85 89 89
28 38 26 31 42 48 41 38 81 70 60 43 23 29 21 15 13 12 12 17 16 17 24 24 29 38 42 52 59 60 64 66 73 82 82 82 79 80 80 84 80 75 75 80
32 27 18 26 27 34 57 53 45 66 61 84 42 22 16 14 14 13 13 15 16 17 20 22 24 37 41 49 58 61 56 58 62 72 74 77 76 76 80 80 79 79 73 65
35 41 24 26 27 36 46 34 51 60 74 84 46 39 25 21 20 16 16 18 18 17 19 23 23 36 39 46 54 62 56 54 54 71 73 69 69 74 72 72 76 77 78 74
35 36 36 26 36 43 43 46 58 58 59 68 63 44 29 28 21 24 24 22 23 23 22 23 25 30 37 42 48 57 56 49 53 61 70 72 73 73 71 72 74 72 73 75
46 42 46 36 30 28 34 39 40 72 80 54 64 52 28 27 24 24 25 20 21 22 21 21 24 28 33 40 45 52 55 52 49 56 62 68 70 70 72 74 73 74 74 72
37 44 56 51 53 29 37 44 47 38 59 93 99 50 31 30 28 22 23 23 21 22 21 20 18 26 29 36 40 45 54 55 53 52 59 65 66 68 68 70 72 70 73 72
46 48 57 78 86 66 57 44 44 45 57 62 78 62 47 44 36 30 22 24 22 22 20 20 20 20 28 33 38 41 50 55 56 52 53 60 65 66 65 65 66 71 70 70
40 61 56 43 54 56 78 65 54 72 67 65 48 50 42 41 33 28 23 22 23 26 27 29 32 32 28 28 38 39 44 52 55 54 53 56 62 64 64 66 66 66 68 68
31 53 44 45 36 60 43 35 32 38 46 32 41 55 39 38 21 20 23 23 32 34 34 34 33 32 33 32 29 35 42 47 51 54 55 53 57 60 65 67 68 68 69 67
48 46 46 50 34 40 55 39 33 30 29 30 35 29 28 26 23 24 24 30 35 35 35 36 36 38 43 45 43 32 29 40 46 51 53 53 56 59 63 64 65 66 69 70
46 46 49 65 51 70 35 22 22 27 26 24 24 24 28 24 24 25 25 35 36 33 33 36 39 45 49 53 62 61 51 31 35 45 48 51 55 58 59 63 64 67 68 71
40 48 67 67 57 36 25 20 20 25 24 20 21 24 26 24 26 34 28 31 36 34 33 42 50 60 64 69 70 68 62 55 46 32 45 48 52 56 58 62 66 68 70 72
39 49 64 68 66 62 32 18 24 22 34 28 29 34 32 29 48 43 31 29 31 34 44 49 56 63 71 74 72 73 69 73 77 79 68 47 50 53 58 62 67 70 70 72
62 70 77 76 73 45 23 35 29 48 57 37 34 38 42 47 45 39 33 31 34 37 43 49 58 70 74 72 74 78 78 85 81 78 77 79 66 55 56 62 67 74 77 95
58 77 80 72 71 73 28 32 56 65 59 47 45 44 47 44 41 41 37 40 43 42 43 47 59 71 74 72 75 78 84 82 80 83 83 85 86 85 82 76 93 96 98 98
85 49 58 48 50 35 37 54 46 44 51 50 50 44 45 47 46 43 45 48 46 45 50 53 59 68 72 70 76 85 87 85 83 84 87 87 85 88 92 97 99 98 99 98
49 53 69 65 40 43 78 55 46 42 46 44 45 47 48 53 50 49 48 54 54 52 58 61 66 72 75 71 72 82 85 84 82 87 89 88 90 91 92 93 95 98 99 99
44 63 64 81 75 61 73 74 51 49 50 49 47 48 50 52 56 60 59 62 61 60 63 65 74 79 78 75 78 79 85 86 84 86 88 91 92 92 90 93 97 97 98 96
47 69 84 88 65 74 78 59 54 56 56 56 53 51 51 57 64 66 70 70 68 71 70 72 76 78 80 79 82 85 86 84 89 91 92 95 93 93 92 90 91 94 95 96

GFSCGP_sfc_rhum_081.txt.gz
RH
23 27 34 31 32 30 30 32 31 26 20 21 22 21 16 14 18 21 23 23 34 35 38 39 46 51 76 86 93 96 96 98 98 98 98 98 98 97 96 92 91 87 77 78
30 29 23 20 18 19 25 29 28 23 19 19 22 24 17 17 17 18 24 24 30 35 41 41 51 57 75 86 94 94 91 97 97 96 93 90 92 91 88 88 82 88 84 72
41 34 26 32 25 26 32 32 30 32 20 21 27 31 23 17 17 16 16 20 22 34 40 45 52 58 80 89 95 95 86 94 90 91 89 90 90 95 96 95 90 91 85 74
41 32 36 43 41 34 41 32 41 51 72 77 51 57 33 20 17 15 14 16 17 30 36 45 53 58 72 84 92 93 95 93 88 89 91 94 94 95 92 88 82 82 86 79
40 46 48 50 44 37 46 49 55 72 88 72 62 53 35 22 23 18 15 14 17 22 38 48 54 56 61 72 82 86 93 88 88 88 89 91 92 87 84 90 86 84 91 86
29 30 39 44 43 49 59 74 64 75 88 98 76 57 40 26 21 19 17 15 16 20 36 45 51 58 59 72 74 87 89 83 88 87 87 87 89 88 88 89 90 86 90 95
34 34 44 52 71 63 74 92 99 99 98 92 45 49 36 24 19 19 20 19 17 21 36 46 55 61 63 75 74 87 85 82 86 87 88 87 86 84 83 85 84 84 85 83
46 52 36 47 56 52 69 87 96 88 93 76 34 42 30 20 17 17 18 18 18 26 34 45 51 55 62 68 75 72 83 88 81 85 86 81 83 82 80 82 81 82 82 78
45 39 24 22 36 43 55 72 66 84 96 97 77 40 21 19 18 18 18 18 25 33 33 44 47 51 58 66 72 75 79 78 85 83 80 85 90 87 85 79 79 80 79 79
45 59 31 26 31 37 41 46 80 97 96 96 56 64 53 29 24 22 23 25 26 28 29 34 45 49 54 63 66 68 77 76 79 88 85 83 85 85 82 84 84 80 77 77
50 59 48 36 40 45 54 60 92 93 82 98 97 82 61 75 35 32 31 28 30 31 30 28 36 46 50 60 65 66 67 71 71 83 83 79 81 79 81 81 83 80 79 76
48 60 61 43 29 30 44 64 70 99 94 76 92 90 73 80 54 32 26 26 28 27 28 26 31 49 54 58 64 66 62 62 64 76 80 80 77 73 74 80 79 80 81 80
42 58 77 60 56 46 55 54 62 84 78 99 100 90 72 68 51 45 38 28 28 32 36 37 36 34 46 57 62 65 65 59 60 73 81 81 80 79 78 78 75 75 77 77
49 55 70 87 96 91 97 68 64 82 99 76 92 72 58 76 66 54 44 35 37 39 39 39 40 40 41 41 63 64 66 64 62 65 74 80 80 81 79 78 77 77 78 79
50 68 62 64 49 49 86 66 92 90 91 94 72 82 57 70 76 67 46 38 39 40 40 40 42 48 49 54 59 64 62 66 65 64 69 71 74 74 76 77 78 77 79 77
51 61 58 61 44 38 48 54 66 73 86 82 71 77 60 41 42 51 53 40 41 40 40 41 51 58 64 68 70 68 69 71 72 64 62 62 70 72 73 74 76 78 80 78
66 71 63 70 47 56 73 52 41 50 69 70 72 47 41 41 53 38 46 42 41 40 48 64 71 70 69 72 74 77 73 66 66 69 69 63 66 69 70 71 74 75 77 77
73 65 67 84 68 81 53 35 32 39 35 30 28 40 41 41 37 35 45 46 45 59 69 71 74 74 76 75 76 75 71 75 78 82 81 82 72 71 68 70 72 75 75 78
63 68 84 87 82 57 37 29 30 36 33 32 26 37 33 36 40 41 37 43 60 62 68 73 74 76 77 76 74 74 75 76 78 81 83 81 81 88 75 74 72 72 76 78
54 65 81 87 88 83 49 36 35 33 59 46 47 51 50 46 68 60 50 50 56 57 64 72 73 76 73 71 73 76 78 80 80 79 79 78 82 86 91 85 76 72 74 77
70 79 83 84 91 78 40 47 43 58 81 59 54 56 56 62 59 54 52 52 53 56 60 65 73 77 72 69 75 81 83 86 80 76 76 79 81 84 87 93 95 84 82 84
75 83 91 91 92 87 45 48 66 85 67 58 57 61 65 60 57 57 58 58 59 63 65 65 73 73 70 68 73 80 85 80 78 78 80 81 82 82 83 93 96 98 97 99
99 68 83 69 72 76 81 80 78 73 78 68 62 59 58 62 62 61 64 64 65 67 70 68 72 73 72 70 73 83 84 82 81 82 84 85 81 82 85 92 96 97 97 99
85 85 88 76 90 90 90 73 63 61 56 56 58 57 61 68 69 70 70 69 69 69 70 68 71 76 78 74 76 82 84 83 82 87 87 86 87 83 84 86 90 93 97 98
80 85 92 89 89 90 90 88 65 60 58 55 54 61 65 68 73 72 74 72 70 68 68 70 75 78 79 77 80 83 85 83 84 86 87 88 87 85 85 90 93 93 97 98
72 91 99 99 97 94 97 76 68 65 63 63 62 70 69 70 73 71 74 71 70 72 71 73 78 80 84 81 84 86 87 83 87 89 90 93 91 89 87 82 88 94 94 95

GFSCGP_sfc_rhum_084.txt.gz
RH
31 31 32 29 38 39 39 40 42 37 26 31 31 26 22 19 20 17 24 24 32 37 40 48 73 85 95 97 98 98 96 97 96 98 98 96 98 98 99 95 93 92 88 87
34 33 25 26 27 30 33 36 34 28 26 44 49 39 28 30 25 19 22 26 29 40 49 52 77 88 93 98 96 96 97 97 94 92 91 94 92 95 91 93 95 90 88 83
39 32 25 25 26 26 27 34 37 37 46 48 46 42 33 30 31 22 20 24 23 36 48 54 73 89 92 97 96 91 90 96 95 92 90 91 92 96 97 96 95 94 89 82
51 34 35 43 44 41 49 35 41 50 78 82 63 89 51 43 40 31 20 23 27 35 42 50 61 88 93 96 95 93 86 92 93 93 92 93 92 90 86 91 86 88 92 84
45 50 49 50 46 40 53 65 67 69 85 80 72 93 58 44 42 32 24 19 22 33 44 51 57 73 83 95 97 94 84 79 83 92 90 91 92 89 89 94 95 90 93 88
31 31 44 44 52 50 64 73 76 78 85 89 61 83 64 50 38 28 22 21 19 24 41 48 50 65 86 95 97 93 90 85 81 89 91 90 90 90 92 91 90 88 89 94
37 32 50 56 75 72 77 85 94 99 98 84 50 73 58 39 30 24 22 23 22 26 42 50 58 70 85 95 96 97 94 92 86 88 90 90 88 82 88 88 85 82 84 90
51 48 56 54 54 71 85 89 92 93 94 84 49 61 51 36 28 23 20 20 20 29 45 52 61 63 76 83 91 91 95 96 96 91 88 86 85 84 83 84 81 82 79 76
44 40 31 49 48 49 78 94 70 99 99 98 78 60 34 50 49 34 20 21 29 36 49 56 62 61 70 77 86 87 87 86 92 90 86 87 86 84 83 82 80 81 77 71
52 64 44 34 41 49 54 68 99 99 96 97 68 75 89 75 67 48 32 38 40 46 48 56 60 63 66 73 77 86 84 84 85 86 86 83 84 83 80 80 83 81 78 75
62 65 65 48 44 53 53 86 95 97 94 98 95 93 77 83 71 62 50 33 38 40 42 54 55 58 64 70 75 80 83 86 86 85 84 82 82 86 86 86 85 81 81 78
51 61 81 58 36 36 42 58 79 99 97 92 96 86 87 81 76 66 48 39 46 44 44 47 56 64 71 72 74 80 80 80 86 87 86 84 81 84 90 86 85 82 82 80
48 80 83 71 60 69 76 61 65 76 85 95 99 89 83 81 82 69 63 44 43 45 50 51 54 60 68 73 74 75 77 80 79 88 90 90 90 91 89 86 82 82 82 81
51 60 75 92 80 90 92 82 83 95 99 89 92 75 69 87 87 78 74 51 44 46 54 59 66 70 69 71 82 86 84 77 76 80 87 89 87 85 83 82 85 83 82 82
54 66 68 65 62 54 60 68 87 94 94 98 86 79 76 82 87 84 78 58 45 56 62 67 71 70 70 74 77 78 78 79 79 82 85 86 84 84 83 81 80 83 84 84
68 75 67 66 50 47 56 46 76 91 86 90 80 93 69 83 84 86 80 68 57 69 71 66 66 71 74 76 79 77 80 82 79 81 86 84 87 84 84 83 83 84 82 80
74 84 83 79 58 56 73 58 56 74 72 82 91 62 74 80 68 71 75 66 72 74 72 70 74 76 78 80 78 81 78 77 80 84 81 83 84 85 82 86 87 86 87 86
75 82 92 94 71 78 48 32 32 50 49 63 57 60 64 73 63 49 58 72 76 75 75 77 79 78 77 75 76 75 74 76 78 80 80 79 85 85 84 85 83 84 84 90
74 78 85 87 81 58 34 29 43 39 61 56 49 60 61 54 64 72 66 71 77 78 77 78 76 74 75 78 77 77 81 79 78 79 77 76 80 84 86 92 94 90 85 84
72 77 82 92 90 89 54 39 36 41 85 61 52 52 53 62 90 78 65 66 68 72 73 72 72 72 74 75 76 79 81 80 82 79 77 75 77 82 86 89 93 94 95 86
92 92 89 92 92 80 52 64 50 70 88 68 64 65 68 80 74 67 64 67 66 68 70 70 73 77 75 72 72 76 80 84 79 76 77 77 75 77 81 87 90 95 96 97
85 93 93 92 94 84 77 70 76 84 72 69 68 69 74 73 70 69 68 69 70 73 71 70 72 73 70 70 75 79 85 80 78 81 81 81 80 78 76 86 88 90 95 98
98 94 90 76 74 88 83 87 75 79 85 80 79 67 71 73 73 69 72 71 70 71 72 68 71 72 73 73 77 87 87 81 80 82 84 85 81 82 84 88 90 92 94 97
100 95 91 82 90 93 90 76 69 70 66 65 70 72 72 77 73 73 71 71 72 70 72 71 76 81 84 80 80 85 83 80 80 85 85 83 83 82 84 87 87 94 97 95
98 92 99 99 96 95 92 91 88 66 67 72 68 70 72 74 75 74 74 71 71 71 71 74 81 84 84 81 84 83 83 80 80 83 85 87 85 83 83 89 94 92 96 96
93 98 99 99 100 98 99 94 93 88 77 67 69 76 73 72 74 73 77 74 74 78 79 81 84 86 86 85 86 87 86 86 84 86 87 91 89 87 89 85 86 87 92 95

GFSCGP_sfc_rhum_087.txt.gz
RH
33 37 38 28 42 43 44 48 51 43 28 44 46 49 38 35 32 35 32 27 22 25 32 51 84 92 96 92 89 90 97 97 96 96 99 99 99 99 99 98 97 96 94 90
36 40 32 26 29 36 41 46 47 31 29 44 54 45 35 34 30 32 32 32 27 38 57 70 93 96 93 91 88 90 89 91 96 87 86 90 95 97 96 98 96 98 95 87
39 32 29 26 29 30 33 34 37 34 54 55 60 43 29 24 31 33 36 29 25 41 56 72 94 97 91 89 90 89 88 87 96 94 88 92 97 98 99 99 99 99 95 91
51 36 33 31 30 30 45 42 44 54 70 74 70 67 41 36 38 39 37 38 29 36 48 62 83 97 95 88 89 97 88 86 86 95 95 94 92 97 94 95 95 98 95 96
51 51 51 51 48 43 54 62 68 74 89 93 82 92 43 47 47 40 40 35 33 30 46 55 79 86 93 86 92 95 97 86 85 88 90 93 94 88 91 94 95 96 97 92
37 30 40 49 65 55 69 69 69 85 91 97 63 77 54 40 34 36 35 33 26 26 43 48 60 78 95 86 90 96 87 87 88 86 91 90 91 87 94 95 96 96 96 94
36 33 49 57 76 72 78 73 92 96 95 83 56 69 56 38 36 39 34 30 25 24 36 49 63 86 92 91 89 86 83 80 83 92 91 91 88 85 87 88 90 91 92 94
43 46 56 57 58 69 82 72 87 94 92 94 57 74 63 51 49 40 34 32 27 25 28 50 57 80 94 90 89 85 88 81 80 83 85 87 86 86 93 93 92 92 88 86
51 42 40 56 54 55 91 94 73 93 88 96 81 67 49 66 66 56 48 41 46 33 27 46 55 73 90 95 92 90 87 84 82 82 82 85 87 85 87 93 91 89 86 81
55 56 48 43 47 51 68 70 93 99 98 98 77 74 84 84 86 71 51 54 54 52 48 52 58 71 80 87 91 94 92 90 84 82 89 85 90 84 83 86 92 87 89 84
60 63 64 49 52 63 76 96 93 92 98 99 97 83 94 92 89 86 70 51 59 62 66 68 67 71 74 79 88 91 91 93 93 92 93 93 91 84 84 84 85 83 86 86
50 70 81 66 47 47 53 75 85 96 95 99 98 91 90 86 79 77 72 55 62 66 65 73 76 78 84 85 86 93 94 92 92 92 93 93 93 89 86 85 84 84 84 82
49 78 77 69 71 72 84 80 71 86 97 98 96 88 79 83 85 78 79 71 66 73 71 74 81 88 88 86 88 90 91 90 93 93 93 92 93 93 89 87 86 86 84 83
52 66 72 77 77 87 86 77 74 81 100 98 94 77 82 84 86 84 83 80 70 72 74 77 80 84 84 85 87 89 92 93 91 92 93 94 93 92 83 84 85 88 84 84
59 63 69 64 65 68 69 66 63 88 93 99 84 88 72 82 85 86 90 81 72 73 69 73 81 80 82 84 83 84 86 85 87 89 95 95 94 92 90 90 89 88 88 87
70 73 78 73 57 58 61 51 56 61 78 94 88 95 69 72 84 88 87 88 78 76 77 76 77 76 79 79 79 79 82 84 82 86 88 87 90 90 91 93 92 90 90 90
74 84 86 82 70 67 73 61 43 73 77 76 94 85 72 84 81 82 85 90 85 83 80 80 79 78 79 80 79 83 79 77 79 79 78 79 82 83 86 87 89 91 89 88
78 85 94 96 78 83 48 32 30 46 60 60 60 64 78 83 88 90 89 89 90 86 85 82 78 78 78 78 80 79 77 77 78 78 78 77 80 82 82 85 88 92 94 94
76 83 89 92 82 61 46 34 54 60 59 59 68 62 81 77 77 89 83 84 85 85 84 77 74 73 74 77 77 79 79 78 78 79 79 77 77 78 80 86 89 90 93 95
86 80 85 93 92 86 54 51 57 50 71 71 68 76 76 72 93 92 72 78 81 78 74 76 72 71 73 74 73 77 79 80 82 79 78 74 76 77 82 84 86 87 89 92
96 93 96 94 90 78 55 77 64 74 82 79 80 81 78 88 80 77 76 83 77 72 72 69 70 74 75 75 78 83 81 86 80 78 77 78 80 79 85 86 84 85 89 95
86 95 99 94 95 88 82 80 75 90 86 82 82 81 84 77 74 73 71 72 72 74 72 70 73 77 78 78 80 86 88 80 76 78 82 81 82 80 79 85 89 90 90 92
94 87 92 78 81 87 81 84 82 80 87 83 84 76 76 77 75 72 74 73 71 71 73 72 77 81 83 84 82 86 87 80 83 82 84 80 83 80 80 84 88 89 88 94
97 100 100 100 94 95 90 77 76 73 74 72 75 73 73 82 82 82 78 77 77 73 78 77 79 82 84 80 80 81 87 77 82 85 84 84 84 83 84 85 85 90 94 91
99 98 100 100 99 96 96 94 78 74 74 76 70 72 81 82 87 80 77 74 76 79 80 80 83 85 87 84 86 86 86 84 80 87 84 87 84 88 86 90 91 91 96 94
98 99 99 99 100 100 100 98 95 90 90 81 75 78 77 73 76 75 80 79 78 81 78 79 80 81 87 85 88 89 87 82 82 83 86 91 89 91 89 87 91 83 86 86

GFSCGP_sfc_rhum_090.txt.gz
RH
31 37 43 42 39 40 51 54 52 50 35 35 37 38 50 39 40 38 36 34 34 31 27 28 61 91 97 95 93 94 97 96 96 95 95 99 98 99 99 99 99 97 97 95
34 41 32 28 35 41 46 52 55 40 30 48 49 44 37 37 34 34 35 35 35 37 40 69 94 96 95 92 91 94 93 96 92 87 85 97 97 97 97 99 96 96 96 94
38 33 30 28 32 37 40 45 41 39 48 50 63 33 29 28 29 31 35 33 35 34 33 80 97 96 89 88 88 91 89 96 91 86 84 96 98 98 99 99 99 99 95 94
44 32 31 33 31 30 36 31 35 56 61 68 71 68 36 28 27 30 31 42 40 40 42 74 94 90 90 83 84 85 85 90 90 84 86 89 87 96 96 98 98 99 96 94
54 53 49 44 35 31 46 53 58 72 82 93 89 77 47 35 28 25 23 36 41 40 39 70 90 90 88 81 87 86 85 85 87 88 83 85 92 96 95 98 99 99 99 93
45 33 40 49 73 51 67 62 76 88 87 97 73 72 48 38 35 49 46 32 36 38 36 51 69 87 88 80 87 90 88 82 84 86 86 89 92 96 97 98 98 98 98 98
38 35 50 62 79 70 62 66 91 84 83 88 58 74 50 38 38 67 57 44 41 38 33 54 77 95 90 86 86 92 88 86 87 87 85 88 93 87 92 94 93 98 98 98
46 44 50 58 54 73 81 66 84 81 92 85 60 89 66 62 70 70 65 54 55 53 33 56 69 87 90 84 85 90 96 95 91 87 86 83 95 88 86 87 87 86 88 91
46 45 51 57 63 54 90 83 71 84 88 98 68 73 57 72 71 69 72 69 63 66 59 44 57 76 89 83 86 93 86 82 84 85 94 90 83 95 84 84 88 87 95 91
50 57 52 57 51 64 61 69 87 95 97 92 83 86 87 85 83 74 77 77 73 78 67 37 50 75 88 86 81 84 80 82 85 79 75 80 83 94 90 94 95 96 95 91
62 58 68 51 58 76 79 90 91 85 89 95 98 89 84 86 88 86 74 71 74 82 81 68 69 81 89 82 80 84 82 81 83 81 84 85 87 92 88 91 96 96 94 92
54 73 81 67 66 53 60 82 82 94 92 94 99 82 89 85 86 86 79 75 74 76 84 85 83 86 96 88 85 88 89 83 85 86 87 86 81 92 91 90 91 92 94 92
46 76 61 81 73 61 77 80 74 89 98 97 97 84 82 82 82 83 86 82 74 79 82 83 86 90 94 97 96 97 97 97 92 89 90 90 93 97 95 90 89 89 88 88
56 68 62 73 70 76 85 71 73 85 97 93 93 92 74 77 84 81 91 88 76 77 81 83 85 88 87 88 91 92 93 95 94 96 97 97 97 97 96 93 89 90 88 88
58 68 66 64 65 71 70 70 73 89 84 91 73 90 76 71 77 85 92 84 74 80 80 80 82 85 84 86 86 87 88 88 95 97 96 95 95 95 94 92 88 89 91 91
66 82 76 73 61 63 70 60 62 59 59 74 66 80 69 71 73 85 89 88 86 82 81 78 79 80 84 84 84 82 82 81 80 84 86 84 85 90 94 93 92 90 88 88
75 78 77 71 74 66 67 67 45 40 78 83 96 78 75 90 88 82 93 88 92 92 86 85 83 82 83 86 82 82 77 75 75 77 78 79 82 83 86 86 88 92 96 95
80 79 89 92 76 80 47 37 39 57 54 75 71 66 80 93 93 93 87 90 92 91 90 90 85 82 78 78 79 77 73 76 76 77 75 75 78 79 80 82 86 89 92 94
75 84 89 90 85 60 45 48 69 68 57 70 75 71 90 86 80 94 88 88 92 90 88 84 84 81 77 76 73 76 77 77 75 78 76 76 77 80 82 83 85 86 90 90
87 81 85 92 88 88 55 56 68 64 52 91 87 82 90 85 97 96 88 85 86 81 77 78 76 75 81 79 75 77 81 80 81 80 78 77 80 84 88 88 88 86 86 90
97 96 88 93 80 79 63 84 73 74 79 91 84 82 82 92 87 93 80 82 80 78 76 70 72 80 82 80 78 83 84 84 77 78 77 80 81 82 82 85 87 87 88 87
84 95 97 83 91 90 90 82 83 89 87 85 84 82 86 82 84 89 90 84 71 74 75 74 79 83 81 81 80 86 90 79 77 79 79 81 81 78 77 84 86 87 90 91
90 92 96 91 86 90 83 84 80 81 89 86 86 85 96 99 99 98 95 76 75 76 76 76 80 80 81 81 81 87 89 78 81 81 83 80 81 81 82 86 85 89 88 92
92 97 99 100 100 98 96 91 83 91 87 84 83 94 96 98 96 94 92 90 82 82 80 76 77 81 86 82 83 88 88 77 80 81 85 79 81 83 83 82 83 88 90 87
97 95 97 100 99 98 98 99 98 97 89 80 74 74 80 83 86 79 81 80 79 78 77 77 81 81 85 83 85 85 85 82 80 80 81 86 86 85 86 89 91 90 94 91
97 98 96 99 100 100 99 100 99 94 94 93 91 87 80 75 79 77 82 78 78 80 77 79 81 83 89 86 88 89 86 81 78 81 85 93 93 93 91 91 90 84 84 81

GFSCGP_sfc_rhum_096.txt.gz
RH
21 25 29 24 26 24 23 25 27 22 20 24 23 20 18 16 17 19 18 17 16 15 13 12 14 15 20 25 37 46 59 76 88 92 95 96 94 92 86 71 80 77 93 98
22 23 18 17 21 26 38 41 27 21 23 26 23 22 18 17 18 18 17 16 16 16 14 14 15 16 24 28 38 46 52 77 79 70 68 71 76 79 73 80 84 86 90 96
22 18 16 23 26 34 35 30 27 26 21 20 23 24 21 16 15 15 15 16 16 18 19 17 16 18 23 35 40 44 51 77 77 62 62 71 66 73 77 83 93 98 95 96
22 15 24 30 29 31 30 21 22 25 27 30 26 26 19 17 15 15 19 30 33 33 31 25 20 18 21 34 40 43 57 77 76 70 65 65 62 69 67 74 67 94 91 96
36 31 28 32 24 20 23 18 23 22 21 25 27 34 18 15 17 22 28 38 38 36 35 34 29 22 19 30 44 49 70 78 76 73 62 62 58 50 63 68 78 90 94 92
33 31 27 24 24 22 19 23 28 32 35 51 29 26 18 17 27 38 40 39 38 37 38 36 34 28 22 29 47 60 79 80 79 73 65 65 61 57 64 71 78 97 97 98
35 30 38 31 46 29 30 38 58 60 59 41 27 30 20 31 43 43 43 39 37 39 42 41 39 36 27 38 52 68 80 80 76 74 70 69 61 61 63 70 78 94 96 97
36 40 45 44 36 37 39 35 42 42 37 30 33 36 26 37 33 36 34 35 38 41 43 46 50 47 36 39 50 71 78 75 74 75 73 73 59 72 58 66 75 85 89 93
34 31 25 40 40 34 45 47 36 44 54 51 26 27 28 37 32 34 35 38 44 45 45 54 62 51 42 40 52 72 72 65 76 74 74 77 68 78 63 62 63 68 81 89
26 48 32 46 38 42 37 32 52 52 68 56 33 34 35 38 44 40 40 44 51 48 53 66 71 54 36 39 52 75 74 71 80 74 75 76 77 77 65 64 71 69 74 87
26 34 50 45 37 41 46 46 46 42 50 52 47 42 50 50 46 45 46 56 54 56 61 75 77 67 42 44 61 78 77 76 82 80 75 77 78 78 74 66 71 73 80 82
48 42 50 40 46 30 28 32 37 48 67 55 59 45 48 38 37 48 61 58 54 58 63 77 79 84 69 63 78 79 78 83 81 80 75 79 78 78 78 73 72 70 77 77
44 52 68 70 49 39 42 44 44 53 54 68 74 47 38 28 37 49 78 70 59 60 65 79 81 85 89 92 84 82 85 85 84 79 81 76 69 74 80 81 69 72 72 74
53 46 49 52 51 43 58 49 45 47 61 48 47 35 28 39 54 52 82 76 69 65 77 83 85 87 87 89 90 92 93 89 84 79 78 79 76 77 80 75 67 78 77 69
55 51 45 41 38 36 35 33 35 39 38 50 36 36 36 59 69 67 81 76 78 79 82 94 92 90 87 88 88 88 91 91 92 93 94 92 82 77 78 73 68 74 80 79
67 59 38 47 35 30 32 26 26 30 33 35 36 38 43 57 67 88 89 85 88 93 94 91 97 90 89 88 85 86 89 91 87 89 91 90 89 88 89 90 92 92 90 88
50 44 36 47 36 29 36 35 28 30 32 36 42 41 38 68 79 93 94 94 95 96 97 100 100 99 90 84 81 89 88 88 88 86 82 84 85 88 90 87 88 92 95 93
44 39 41 47 40 37 38 28 33 34 43 44 45 48 62 79 89 93 94 94 96 93 94 100 100 99 96 88 83 78 77 81 88 85 88 83 84 86 87 85 88 92 92 92
48 44 51 50 38 35 46 50 50 47 46 54 67 58 81 76 75 95 96 93 95 98 96 83 91 100 99 87 77 73 76 74 74 78 77 72 85 91 88 87 88 87 87 85
49 49 48 53 45 51 63 48 43 44 47 66 71 67 82 79 94 95 87 96 94 90 71 66 64 70 84 90 84 80 78 77 80 77 75 70 72 77 80 83 82 80 77 77
61 66 66 66 59 52 71 49 42 52 85 75 76 83 85 91 95 96 88 93 98 63 63 60 58 61 68 70 73 78 81 88 80 69 67 71 72 78 76 76 76 73 75 76
58 65 71 66 67 66 92 51 71 97 91 86 88 89 91 92 98 98 97 95 91 59 57 56 60 63 62 66 69 77 77 70 66 71 72 71 75 73 71 75 73 71 74 77
85 86 89 89 95 98 95 97 95 94 95 98 98 97 94 95 99 100 98 96 95 76 57 52 57 62 63 64 65 75 78 69 67 62 64 64 66 68 69 74 73 74 74 79
87 75 96 100 98 90 96 90 94 91 96 94 94 96 92 93 96 95 91 88 78 61 54 50 54 58 63 64 68 71 69 65 66 68 63 62 66 66 66 67 71 75 78 80
74 68 88 100 97 82 82 88 87 86 83 80 73 73 71 66 66 60 59 58 56 54 53 53 58 60 61 60 64 64 65 59 62 66 66 65 65 69 73 78 80 80 91 87
73 92 90 91 99 96 99 97 94 91 87 73 66 65 62 58 61 57 59 57 55 57 55 55 58 62 64 63 68 68 63 61 62 64 66 71 69 67 65 68 76 82 84 83

GFSCGP_sfc_rhum_099.txt.gz
RH
24 19 18 17 23 22 25 25 34 23 17 20 22 20 15 13 14 15 15 15 14 14 12 11 12 11 12 16 21 29 43 56 74 79 80 86 81 87 74 76 63 59 65 79
22 19 12 14 16 24 28 70 51 29 20 21 20 20 16 14 14 15 15 15 15 14 13 13 13 14 15 16 20 26 36 48 69 75 70 67 69 74 63 65 60 60 66 76
28 14 10 13 15 22 36 54 40 31 23 24 23 24 20 15 14 14 14 14 13 14 15 15 15 16 17 18 23 22 30 40 68 70 60 56 60 67 67 73 60 71 72 81
24 11 13 15 17 18 30 26 29 28 38 46 20 27 18 15 14 14 14 16 19 23 23 22 22 22 20 20 21 26 28 35 68 63 54 57 57 67 61 60 55 79 83 90
31 14 16 19 20 20 23 21 28 32 27 26 23 29 20 14 16 14 18 24 27 28 28 28 27 26 22 20 21 30 32 35 67 59 52 56 55 52 52 51 65 94 94 87
25 16 16 17 18 20 21 23 21 22 22 32 22 22 24 17 14 19 27 28 29 29 32 30 30 29 28 23 25 32 38 48 67 66 55 59 58 51 50 56 74 86 93 97
43 52 18 18 25 27 26 31 50 51 47 41 22 26 20 23 28 32 32 28 28 30 34 34 34 36 39 35 24 32 41 62 71 77 59 57 55 52 52 61 72 90 96 97
62 64 29 28 28 35 29 30 58 56 56 39 21 24 18 22 26 28 26 28 31 33 36 38 41 47 48 42 30 34 46 67 73 79 60 56 53 50 48 57 68 77 94 94
58 37 36 30 24 24 31 39 33 58 40 40 26 28 29 27 27 27 29 33 43 36 39 42 49 56 53 58 36 39 64 69 78 79 65 59 55 53 50 61 70 76 81 87
26 56 28 29 30 26 31 27 48 45 45 38 25 27 48 43 37 30 33 42 48 41 44 49 56 63 61 64 34 45 71 74 78 78 72 62 55 57 54 66 76 78 73 82
23 43 33 32 40 35 33 40 36 33 39 57 55 55 38 34 32 36 45 48 48 48 52 57 66 69 65 72 36 62 69 75 80 82 78 73 59 59 59 66 67 74 76 80
24 38 43 37 23 37 25 37 33 54 50 40 54 66 32 26 30 50 51 53 49 51 54 59 71 77 75 83 83 74 74 81 81 83 82 80 72 62 71 72 66 68 73 73
42 43 45 54 38 41 39 39 27 39 46 54 62 64 22 31 42 61 64 65 59 57 57 63 73 81 82 85 86 90 87 86 86 85 82 81 78 72 76 76 73 74 74 73
62 44 35 48 43 32 48 33 33 36 47 40 37 30 41 55 64 78 80 77 76 75 71 70 80 83 84 85 87 90 94 93 90 89 84 83 82 77 79 69 68 73 70 71
65 81 79 38 26 29 38 44 41 43 33 43 34 31 59 69 81 84 80 79 81 80 80 83 88 88 88 88 88 87 90 92 91 93 95 93 83 78 78 80 77 68 70 72
58 51 44 38 31 28 30 24 23 24 27 29 28 53 48 59 67 84 91 93 94 92 91 93 89 92 92 92 92 90 90 91 89 92 92 91 92 91 91 91 93 84 88 88
50 43 47 44 25 24 42 29 22 25 29 30 46 56 56 73 88 94 95 93 93 93 93 100 100 100 98 97 96 96 93 88 88 90 90 90 90 91 92 90 92 94 94 93
49 34 36 44 33 44 34 27 26 34 41 41 37 45 56 83 94 96 94 91 94 91 86 99 100 100 100 96 94 96 91 89 91 94 92 92 91 91 90 91 92 93 92 93
40 40 42 42 38 38 36 40 42 40 66 46 49 52 73 81 81 95 93 94 96 93 69 68 79 100 100 100 97 86 89 84 87 99 96 94 95 94 93 92 92 93 94 94
35 38 43 44 36 56 85 49 37 35 68 61 55 65 83 83 99 94 93 96 99 85 59 57 57 61 73 92 99 94 89 94 94 96 91 98 92 92 95 95 96 93 97 97
47 54 56 54 48 64 83 56 44 55 97 76 68 71 75 90 94 96 96 98 100 52 49 51 53 60 63 63 81 90 89 98 99 87 76 84 94 86 80 84 88 90 92 90
62 76 64 59 56 75 81 53 78 98 96 88 82 76 85 87 92 96 99 99 95 84 45 45 51 58 60 61 66 82 87 78 77 86 85 68 69 74 70 79 85 79 82 83
81 77 82 87 93 96 81 86 87 86 92 98 94 82 78 91 99 100 99 93 82 51 42 42 46 53 57 60 62 69 75 76 68 68 78 87 74 70 71 77 75 81 82 84
74 57 97 96 93 83 79 70 75 83 94 94 77 74 72 86 90 91 83 74 61 46 45 44 47 50 56 56 59 64 61 58 68 68 63 67 71 75 75 72 77 85 90 89
68 61 77 96 85 80 73 80 75 72 67 64 60 60 60 58 56 52 49 48 47 45 45 47 52 56 57 58 62 59 59 56 58 62 64 67 69 69 74 84 83 81 92 90
65 88 91 97 99 94 96 91 82 83 78 61 58 56 51 50 51 49 50 48 47 51 50 51 55 60 62 62 69 69 65 64 62 65 67 72 69 66 64 69 79 81 83 82

GFSCGP_sfc_rhum_102.txt.gz
RH
24 36 34 20 20 21 22 22 23 20 31 30 28 20 16 14 14 15 14 15 15 15 12 13 16 16 22 26 32 48 66 78 84 84 85 80 84 83 82 75 72 76 82 84
21 52 33 17 13 14 20 27 28 38 34 36 38 44 29 17 16 15 15 16 16 16 15 16 19 22 28 29 31 35 55 69 76 79 77 80 77 81 79 76 76 77 78 83
20 24 32 19 16 13 17 24 42 42 44 69 60 59 37 22 15 14 15 15 15 16 17 17 21 30 36 35 39 29 40 59 71 76 75 76 79 80 82 78 76 78 77 82
15 12 28 21 15 12 21 17 34 39 78 80 33 59 30 22 20 17 16 18 19 18 23 24 27 30 34 38 40 35 33 42 65 76 77 77 76 80 80 75 74 76 81 89
19 18 30 28 13 11 18 18 31 31 55 65 49 73 39 21 19 18 16 21 30 30 32 32 32 32 30 38 42 44 38 34 65 76 75 73 69 72 72 74 74 91 90 90
15 15 47 27 16 12 15 40 42 43 48 90 58 52 32 24 22 19 23 28 31 33 34 34 35 36 37 42 51 49 46 37 70 75 71 69 70 69 70 71 79 92 92 94
25 31 36 19 22 20 26 43 58 72 87 66 28 29 30 23 18 26 31 29 35 39 41 40 41 44 50 53 54 53 40 41 74 76 72 69 69 70 69 68 76 92 98 98
32 94 66 31 19 26 30 36 60 52 52 40 22 61 50 31 28 28 30 41 39 38 43 46 48 55 60 60 62 60 68 44 72 77 72 67 65 65 65 68 72 85 89 93
90 98 38 23 19 25 29 37 35 98 66 90 50 70 44 47 32 34 38 43 44 43 48 49 53 62 67 67 70 74 73 54 76 80 79 73 69 67 68 71 79 85 89 92
66 89 34 31 26 27 32 31 73 92 97 95 46 52 65 59 41 42 50 51 53 51 51 53 60 68 69 69 73 79 65 71 77 78 79 77 69 70 69 71 82 84 89 88
52 58 42 46 84 47 42 67 70 66 56 76 71 96 77 67 60 56 59 59 59 56 56 59 65 70 72 72 75 87 74 71 79 82 80 86 82 70 73 75 78 80 87 89
29 51 51 37 57 40 39 52 50 86 45 67 93 99 66 62 54 62 64 64 64 65 66 66 69 74 79 81 82 85 88 84 82 87 90 90 84 73 72 79 81 85 87 88
60 50 88 53 40 65 51 46 39 48 77 58 78 99 58 64 72 71 76 75 70 70 72 76 78 80 83 85 84 85 89 91 92 91 92 92 89 82 77 78 77 85 85 84
66 63 76 64 48 68 85 80 64 50 84 57 68 80 70 74 78 79 79 78 76 75 77 79 82 86 84 86 86 88 90 90 92 93 93 93 93 86 83 81 81 81 81 83
74 100 77 67 51 45 69 75 65 42 38 88 55 77 78 80 81 88 91 87 82 80 82 89 90 85 89 88 88 87 89 89 89 91 93 96 95 89 88 87 83 81 80 80
71 98 92 89 43 56 55 34 34 29 35 39 68 96 73 77 88 93 93 88 93 91 93 94 94 93 88 94 90 91 91 91 88 91 93 92 93 93 95 95 95 94 92 89
73 60 74 49 30 35 55 34 38 44 44 55 84 84 73 92 92 95 94 91 91 86 89 99 100 99 97 97 97 96 94 90 90 91 90 90 90 92 93 91 92 94 95 93
63 52 49 50 44 83 48 38 50 55 55 46 46 69 80 93 97 95 95 95 94 83 75 94 100 100 99 98 98 98 93 92 92 94 93 92 91 92 89 90 92 93 93 93
38 54 58 65 55 56 52 55 64 82 93 63 58 65 79 83 94 97 98 98 99 97 65 64 74 96 98 100 100 100 97 93 90 97 97 97 94 94 94 95 96 96 94 93
33 47 62 55 50 83 82 59 48 47 96 79 66 70 81 81 98 94 97 100 100 67 52 53 55 60 71 84 96 99 98 96 97 98 100 98 97 99 98 99 99 97 100 100
63 66 71 63 60 80 74 59 51 68 98 85 74 75 79 91 94 96 90 96 100 80 46 49 53 61 63 63 74 87 97 98 100 98 99 98 100 99 100 100 100 100 100 100
68 82 77 76 75 89 73 57 80 98 98 96 94 92 94 96 97 96 94 96 90 68 45 45 54 58 59 59 64 74 90 86 85 91 93 92 94 96 97 99 100 99 100 99
86 72 74 83 92 90 77 86 95 92 93 98 94 76 80 88 95 94 92 92 80 50 46 46 50 56 58 58 60 72 68 71 75 80 89 90 88 90 93 94 96 96 93 96
68 53 89 91 88 83 79 75 77 81 91 72 64 66 69 83 85 89 86 75 59 47 49 49 53 58 64 62 63 68 66 59 66 74 75 83 85 84 86 85 86 90 95 93
64 59 75 91 81 78 76 79 76 69 61 59 55 53 54 54 54 53 51 50 50 49 50 54 60 64 66 66 70 68 67 65 64 71 73 74 75 76 80 88 90 88 94 91
68 84 85 91 99 89 94 83 75 73 63 52 52 52 48 48 51 51 55 53 52 55 56 59 64 68 70 72 77 80 73 72 78 80 80 86 89 83 77 80 87 80 83 80

GFSCGP_sfc_rhum_105.txt.gz
RH
21 24 36 54 29 26 25 32 34 26 21 42 46 38 35 24 23 20 20 18 17 16 15 15 17 15 17 22 66 76 88 93 91 91 97 89 95 93 95 96 91 94 94 94
53 34 19 18 41 34 26 30 32 25 23 66 82 74 60 54 44 36 22 19 24 20 21 16 21 21 23 26 68 80 87 94 90 84 87 90 81 89 77 92 92 92 95 95
57 62 25 16 31 60 36 24 22 22 60 71 78 74 60 45 35 30 23 16 20 21 21 27 32 38 41 40 44 78 85 92 90 87 85 91 93 87 88 80 83 94 91 92
59 48 47 32 44 62 32 18 16 18 76 94 80 87 60 46 37 29 23 19 20 33 39 41 45 47 48 52 54 50 79 89 90 87 85 84 86 87 80 80 82 95 92 94
74 41 34 26 19 41 48 21 19 21 92 81 94 98 74 53 49 27 23 38 41 42 45 49 50 50 54 55 58 58 60 77 86 84 83 84 87 84 92 86 86 92 96 95
72 29 25 42 38 43 41 56 65 74 67 93 65 75 61 51 43 27 46 50 48 48 52 54 55 57 61 60 61 62 61 65 81 85 84 83 82 85 89 89 92 98 97 97
50 28 19 38 56 55 44 53 96 96 98 89 48 71 50 36 36 47 52 49 52 56 59 61 64 67 66 67 66 64 68 69 73 88 85 82 80 83 82 85 89 98 95 97
43 66 40 37 43 60 59 60 87 81 88 68 39 60 46 43 57 55 51 61 56 59 60 64 65 68 70 68 68 71 74 77 76 87 83 80 76 78 76 78 92 92 92 93
80 83 53 52 45 43 47 62 58 84 94 91 60 72 49 60 80 61 70 63 66 63 64 68 69 71 72 71 73 74 78 84 81 74 86 86 90 74 78 78 94 96 94 96
84 92 62 42 34 34 35 41 72 97 93 95 80 80 85 87 93 78 73 74 75 75 75 74 74 73 70 71 77 76 78 88 81 90 93 92 94 91 77 78 93 95 95 92
78 99 68 51 72 50 51 90 82 80 86 98 96 99 91 91 88 83 80 79 80 80 78 77 77 73 72 76 81 84 84 84 92 94 94 94 93 93 80 86 93 96 95 94
73 78 72 56 58 51 57 65 79 90 99 99 98 99 93 86 76 75 76 74 74 72 74 75 76 79 79 82 84 86 86 88 88 90 95 95 93 89 81 86 91 95 94 89
83 72 85 92 65 90 83 58 61 64 82 99 98 99 80 79 81 79 83 78 74 75 77 80 80 82 86 86 86 86 88 90 89 89 96 94 94 92 87 85 91 95 95 92
78 79 92 96 98 74 80 70 76 93 94 93 99 99 89 85 93 92 87 82 82 82 84 89 93 91 85 86 88 88 90 89 89 89 91 95 98 95 94 88 89 92 90 92
86 99 97 89 80 78 94 96 92 80 77 100 99 98 93 93 94 93 88 88 87 88 88 92 95 95 95 92 88 89 88 90 88 90 90 94 93 96 96 96 92 93 93 92
82 99 100 98 90 81 98 80 57 80 94 94 93 99 93 91 88 92 92 86 86 86 89 88 92 94 94 95 95 90 94 89 88 90 92 91 91 91 95 95 95 94 94 92
87 92 92 97 54 61 95 80 73 76 71 72 95 98 89 93 93 95 95 92 88 78 83 96 98 99 97 97 96 97 95 93 88 90 92 92 91 92 94 92 92 94 96 94
64 71 75 72 66 94 89 68 74 84 80 69 74 87 91 93 95 95 98 98 98 93 76 92 93 97 99 98 96 94 96 93 95 94 91 96 92 92 91 93 94 95 94 94
48 67 82 85 92 86 67 66 78 86 96 78 78 79 87 91 81 97 96 98 99 97 74 74 77 87 95 96 100 93 93 98 95 98 99 97 97 96 94 95 96 94 94 94
54 66 82 82 84 96 79 73 62 61 95 92 78 84 82 82 93 97 97 98 100 96 61 66 68 68 73 81 86 91 94 93 96 97 98 99 99 100 98 100 98 96 95 96
80 85 89 89 94 82 86 72 61 80 98 98 90 85 86 93 95 96 95 98 100 61 54 61 65 69 66 66 74 89 91 96 97 96 96 98 98 98 100 100 100 100 98 96
90 94 98 90 89 91 80 70 84 99 99 98 98 94 91 90 93 92 89 90 87 57 51 57 66 70 67 66 77 80 91 84 77 87 93 94 94 96 97 97 98 99 96 95
95 86 96 92 94 97 82 95 97 96 99 99 98 81 80 87 90 95 93 90 85 62 61 59 66 72 71 71 76 88 86 73 73 77 85 89 89 91 92 95 96 96 96 95
81 77 96 98 96 92 89 87 89 96 96 79 69 76 80 87 90 91 86 78 70 64 66 65 69 75 78 76 82 89 87 69 76 77 77 76 80 84 84 83 86 90 93 93
86 77 87 96 90 85 87 93 90 73 62 60 53 55 56 58 59 57 58 61 63 64 66 70 75 76 77 78 86 86 87 82 78 86 89 79 77 79 84 88 88 88 94 90
79 89 97 98 100 92 94 95 80 76 71 59 58 61 63 60 62 68 73 70 70 74 73 76 81 84 80 80 86 89 87 84 86 89 91 94 94 85 81 84 90 80 82 82

GFSCGP_sfc_rhum_111.txt.gz
RH
44 66 72 52 40 34 34 35 38 47 54 42 29 26 24 24 29 39 46 23 28 22 22 21 23 29 26 29 72 83 94 94 93 97 98 98 98 98 98 96 95 95 95 96
62 61 40 43 51 54 52 55 47 36 32 56 55 37 25 24 45 34 38 41 38 40 35 56 68 72 78 82 64 82 91 94 91 91 88 89 90 97 96 97 97 94 96 96
60 44 34 42 47 46 55 68 62 58 30 43 58 67 32 26 37 40 45 46 49 58 71 63 64 73 75 77 78 90 93 94 92 91 90 98 97 99 100 98 97 97 96 96
57 45 43 45 48 47 75 50 56 49 60 74 52 67 33 36 39 47 43 67 73 71 69 67 70 76 78 78 75 67 87 93 90 92 92 95 88 90 91 91 91 93 96 97
70 55 53 58 51 49 56 51 55 48 48 85 76 80 51 68 67 76 78 74 75 73 74 75 74 74 75 77 81 72 72 78 83 94 94 95 94 88 97 97 97 98 97 96
68 57 64 61 49 50 44 56 59 60 69 94 62 58 55 62 76 86 84 81 79 80 78 77 73 71 76 79 81 78 76 74 79 83 88 94 94 93 95 94 97 98 98 98
70 64 65 57 67 51 58 73 83 94 98 81 46 62 46 90 86 86 90 86 84 83 88 86 84 82 80 82 83 78 80 81 80 81 80 81 95 95 90 90 88 94 96 97
94 68 44 53 44 49 65 66 81 95 93 75 59 87 92 92 86 85 80 86 82 82 81 82 80 80 81 80 81 82 82 80 78 82 84 85 76 92 93 92 88 90 88 86
93 88 49 49 45 48 62 77 54 87 80 97 82 99 94 93 94 98 98 89 91 88 84 82 78 77 78 80 81 82 82 78 79 80 82 89 87 88 89 92 94 93 92 95
93 98 61 62 61 59 65 64 85 95 97 91 79 97 98 98 100 100 100 99 94 88 88 83 81 80 77 77 78 79 80 80 81 82 88 90 91 82 90 89 95 95 95 96
79 100 74 62 79 91 80 79 81 77 86 98 96 98 100 100 100 100 100 100 96 92 92 92 86 80 79 79 80 84 84 82 84 87 89 93 96 86 92 92 94 95 96 97
72 98 95 71 68 76 83 73 74 89 89 95 97 99 100 99 98 98 99 100 97 88 81 85 86 84 84 86 84 85 86 87 85 85 89 92 91 93 97 96 94 96 96 95
83 80 93 70 76 81 94 81 69 87 93 96 98 99 99 98 98 98 97 94 86 80 82 82 83 88 88 86 86 86 86 88 87 84 87 91 92 93 94 96 97 96 96 96
81 88 96 96 89 97 99 93 82 96 99 95 94 98 99 99 98 98 92 83 77 80 82 86 86 86 88 87 87 87 88 85 86 85 88 91 92 92 92 90 94 96 95 95
88 99 100 99 99 89 95 99 98 96 96 93 98 96 97 97 96 99 82 76 78 82 82 88 89 89 88 89 86 85 86 86 84 86 89 91 89 88 89 90 89 92 96 94
86 98 100 99 91 86 95 95 93 98 100 97 88 95 96 96 95 91 89 79 80 82 84 87 88 86 90 87 87 86 87 87 84 86 90 89 87 87 90 90 90 91 92 93
98 99 99 96 81 86 81 99 96 90 90 90 88 95 96 94 90 96 92 85 82 84 89 95 96 94 93 94 88 93 92 87 88 89 86 87 88 89 91 91 91 94 96 96
93 92 99 96 96 90 99 95 93 83 87 89 84 91 85 89 94 94 96 91 84 85 87 92 95 95 94 91 89 88 86 89 91 92 90 89 88 89 88 91 94 97 99 100
71 90 99 97 89 96 92 89 91 91 96 93 92 87 88 93 87 92 94 95 83 85 83 85 82 89 90 92 89 87 91 91 91 95 95 95 92 91 91 94 96 96 96 99
70 82 99 97 88 95 92 80 71 72 94 94 92 90 92 91 90 97 96 92 82 78 75 78 78 77 85 88 88 87 89 91 95 95 96 95 95 95 95 96 97 97 95 97
85 92 95 96 89 91 87 92 81 89 98 97 86 88 90 91 98 98 86 89 82 73 73 74 79 84 86 85 82 86 88 90 91 90 90 92 93 94 96 96 97 96 97 96
87 94 92 87 83 92 94 82 82 98 99 90 86 78 85 89 92 92 93 93 88 82 76 73 82 87 83 83 80 86 94 90 76 83 88 89 90 92 93 94 94 94 95 95
94 92 90 94 94 98 99 99 98 95 96 99 85 72 74 84 92 93 96 94 91 85 83 76 79 83 84 85 86 89 93 86 83 75 82 87 85 87 88 92 93 92 92 94
93 81 95 94 96 94 92 90 91 90 82 77 83 84 84 88 88 92 91 90 89 87 85 78 80 84 84 82 82 88 86 87 83 80 79 78 84 82 84 83 83 89 93 93
89 85 88 96 93 87 92 92 83 71 67 72 70 71 73 75 80 80 84 86 84 83 82 78 80 81 85 82 84 86 86 86 84 86 85 84 82 84 85 90 92 90 96 93
88 97 98 99 92 94 96 93 77 80 78 75 78 82 80 78 84 85 86 84 85 84 79 80 75 76 84 82 85 87 87 87 91 82 89 92 94 91 87 92 92 84 84 86

GFSCGP_sfc_rhum_114.txt.gz
RH
45 56 60 54 46 39 40 44 50 39 31 33 33 42 39 36 32 26 23 22 25 31 24 51 63 64 38 53 80 86 95 96 93 95 95 92 94 93 96 97 96 96 96 97
66 74 47 41 44 56 62 69 65 47 33 47 46 47 35 37 37 36 34 23 32 36 68 65 73 80 83 87 81 81 95 97 92 88 86 90 86 88 91 93 98 96 96 96
64 52 41 45 48 50 51 60 47 52 50 54 53 52 42 33 28 30 30 30 65 66 77 72 72 81 84 87 86 85 96 96 95 91 91 98 97 99 99 96 98 97 96 96
66 51 52 54 55 51 71 44 48 57 70 92 54 86 56 36 36 37 80 85 84 82 79 77 78 82 86 86 78 80 86 95 94 92 91 92 91 92 90 90 92 93 97 96
72 66 70 72 64 49 56 50 58 58 74 76 69 89 72 41 44 92 91 87 87 86 85 86 83 79 82 81 78 79 72 78 84 90 91 94 93 93 97 97 92 94 97 96
69 60 66 68 57 55 50 63 66 68 83 96 60 73 65 95 97 92 89 90 88 85 84 80 79 79 82 83 78 73 74 78 80 86 88 93 92 93 98 97 96 93 95 95
70 70 68 63 74 59 63 71 90 89 94 86 56 72 88 96 91 94 96 94 89 86 86 82 83 81 79 80 79 78 77 79 78 83 85 88 93 92 93 95 94 96 98 97
97 84 58 52 59 46 64 64 86 95 94 88 65 82 98 98 95 94 93 94 89 90 88 88 83 81 81 80 80 79 79 80 80 82 86 86 86 88 94 93 92 95 95 93
95 94 61 55 51 56 66 82 69 98 86 97 97 98 94 86 94 99 99 95 95 92 91 90 86 83 82 82 82 82 81 80 81 82 86 88 92 90 85 94 94 96 96 96
90 98 68 59 72 57 61 64 94 98 97 94 89 96 98 96 98 98 98 98 99 96 92 88 88 84 83 82 81 82 80 81 80 81 87 88 91 93 90 86 95 94 96 97
62 100 76 70 76 84 89 90 89 89 90 97 97 98 100 100 99 99 99 100 100 99 96 94 88 89 80 80 81 85 83 82 83 85 87 90 90 90 94 86 93 94 95 96
74 100 96 74 52 75 86 86 82 97 91 97 98 98 100 100 100 100 99 99 100 99 99 98 96 92 92 84 82 85 86 85 84 85 86 89 89 88 91 93 96 95 95 95
95 91 95 76 78 81 88 79 69 84 99 97 97 99 99 99 100 100 97 98 98 98 89 87 92 89 85 84 84 84 86 87 85 84 86 88 90 90 91 91 90 93 97 97
80 99 99 96 98 98 94 93 92 96 97 96 95 97 96 96 97 97 91 94 82 84 85 86 87 88 86 83 85 86 88 86 84 84 88 90 90 90 90 89 89 90 91 95
90 99 99 98 96 89 92 99 93 90 90 91 98 94 97 96 96 98 92 76 81 82 84 89 91 90 89 85 86 86 87 87 85 85 87 90 88 87 87 89 88 88 90 89
86 98 100 99 100 96 93 95 85 94 97 97 92 94 97 96 95 93 93 79 83 84 86 88 89 89 89 85 86 87 88 88 85 86 89 86 85 86 89 89 90 89 89 90
98 100 98 97 78 78 80 98 97 89 91 93 84 95 96 93 88 95 92 86 85 84 87 94 95 94 93 90 86 93 90 85 86 88 86 87 86 86 88 88 90 93 95 93
97 99 99 97 94 90 94 80 80 84 88 90 84 90 85 90 95 95 94 92 86 83 86 92 96 95 95 90 87 87 85 87 90 91 90 89 88 89 87 88 92 94 95 98
83 99 98 98 93 95 85 87 92 92 95 93 95 94 91 93 90 94 96 86 89 88 86 90 89 94 94 94 90 86 88 89 89 94 95 94 90 92 91 94 94 94 94 95
80 83 99 96 87 96 92 81 79 79 91 88 83 89 92 94 89 94 93 89 87 82 79 83 84 84 85 88 86 89 88 89 94 95 95 94 94 95 95 96 96 95 94 96
86 91 96 96 90 91 88 92 91 90 99 88 85 91 89 92 95 96 91 93 89 79 78 77 83 89 88 80 76 89 89 93 89 90 90 91 92 94 94 94 94 94 94 92
87 94 93 94 90 89 95 89 82 98 94 91 80 83 92 94 95 96 96 97 92 89 82 78 84 86 84 85 81 86 92 86 81 81 88 90 90 92 92 93 93 92 93 92
95 89 93 95 94 98 96 96 94 92 97 94 81 80 85 92 97 97 99 97 95 91 87 79 84 83 82 83 84 88 92 89 72 80 80 86 84 86 87 88 90 92 93 93
98 83 94 92 96 95 94 90 90 82 89 87 78 88 85 92 92 96 94 93 91 89 83 80 82 84 84 80 79 84 83 82 82 77 81 75 82 84 79 76 79 86 88 89
91 90 92 96 95 94 94 88 86 76 73 77 76 76 78 80 85 86 88 86 85 83 81 75 77 80 84 80 82 83 83 79 79 77 77 81 79 83 86 87 92 89 96 95
94 96 97 98 91 94 97 86 79 82 83 80 82 87 86 86 91 86 82 83 86 81 72 74 73 75 81 78 77 79 80 84 82 82 83 92 93 88 85 90 90 80 83 81

GFSCGP_sfc_rhum_120.txt.gz
RH
28 25 19 20 24 25 25 25 24 19 17 22 23 19 16 16 17 19 19 18 18 18 15 12 15 15 15 18 30 27 25 42 56 56 56 52 54 52 50 47 53 64 84 86
33 29 21 27 29 32 31 32 29 21 19 22 22 23 17 18 27 39 43 40 39 35 24 18 16 17 37 43 45 39 31 31 51 53 49 47 51 50 48 48 52 59 80 85
37 26 30 33 32 36 33 31 28 27 24 24 25 22 21 26 34 38 45 52 54 54 51 44 42 45 50 51 53 47 47 32 49 59 55 50 52 52 55 53 52 66 70 81
37 31 34 36 37 35 44 22 23 26 35 40 29 48 27 34 36 42 50 69 91 91 82 65 65 66 64 64 64 57 62 72 65 75 63 65 57 62 62 56 55 66 73 66
33 36 38 42 36 32 32 29 30 32 40 42 31 47 27 40 55 59 63 71 94 94 94 84 78 73 72 71 72 69 74 86 94 81 76 77 62 56 57 60 66 74 81 72
40 30 40 37 37 36 33 39 39 38 40 53 38 55 41 73 91 74 86 70 87 94 95 92 85 81 81 82 78 75 76 84 91 94 90 87 89 71 66 73 76 83 84 87
33 36 37 39 39 35 40 45 50 54 64 33 38 56 85 92 90 94 99 94 85 94 95 95 95 91 90 90 87 80 75 80 89 93 91 90 96 93 81 74 75 85 88 92
44 42 37 37 40 44 42 46 54 90 61 51 42 62 82 66 73 82 80 100 87 90 95 96 99 91 91 91 88 87 81 80 79 84 86 86 88 89 90 86 84 73 82 84
59 70 33 34 33 40 42 50 41 76 60 82 67 82 95 50 63 79 94 88 98 92 96 97 96 90 90 92 88 92 87 82 80 81 80 83 84 87 91 90 91 93 87 84
52 97 38 40 38 35 44 42 66 86 96 84 75 93 91 93 92 100 96 98 98 96 94 93 96 90 87 87 88 88 83 84 82 80 80 80 82 82 84 88 91 91 93 94
43 93 45 40 41 40 43 57 64 77 62 84 78 95 100 100 100 98 97 99 99 99 98 96 94 93 81 80 82 86 82 79 81 82 83 84 83 83 84 86 85 87 90 95
54 72 63 44 34 34 34 51 78 90 76 78 97 98 100 87 95 94 99 99 100 99 100 97 97 94 85 82 80 82 86 85 83 82 83 86 85 83 85 87 85 85 85 90
60 66 64 43 49 39 51 52 60 79 99 100 97 97 77 78 88 95 98 98 100 99 99 97 96 96 94 89 85 80 81 82 81 78 81 84 85 85 87 86 85 84 84 84
64 63 85 70 74 73 82 70 63 99 100 94 88 94 88 88 90 92 93 94 97 97 98 98 96 97 95 95 95 84 79 77 74 75 77 84 85 84 84 84 84 86 84 84
57 92 80 77 87 80 76 95 86 82 89 92 96 87 91 91 90 95 97 94 88 85 82 90 94 96 96 92 87 75 78 76 75 75 77 80 80 79 80 84 84 84 85 82
65 93 100 99 93 90 90 96 75 77 86 89 77 90 91 86 90 91 89 77 69 70 76 77 78 80 88 87 80 76 77 79 72 74 78 76 74 74 83 81 82 83 85 84
76 88 87 72 89 67 80 99 98 84 67 76 78 82 83 85 82 87 79 68 70 70 74 88 91 89 87 87 76 83 79 75 76 76 74 74 74 76 80 81 84 89 89 87
77 79 82 66 91 96 99 71 61 67 67 64 63 73 69 75 81 82 78 75 74 72 74 83 90 89 87 81 78 72 72 76 84 86 82 80 78 76 76 80 86 92 94 96
54 79 73 84 83 93 89 82 75 76 80 70 76 73 73 77 68 88 78 70 73 73 68 65 67 81 83 86 79 78 85 84 85 94 95 92 86 85 85 88 92 92 91 99
62 72 78 73 84 87 78 75 82 78 81 67 66 73 73 80 80 82 80 78 70 58 55 54 51 52 57 64 68 80 91 91 91 94 97 94 94 96 95 99 99 99 96 100
74 70 76 76 75 77 74 89 98 92 93 66 59 57 57 68 73 83 71 79 67 50 50 48 47 49 50 48 53 70 75 88 91 81 82 91 95 97 99 100 100 100 100 100
52 66 72 72 80 89 77 98 95 87 70 64 61 62 72 77 81 83 84 84 63 50 46 45 47 48 46 45 48 59 71 56 53 59 66 70 75 94 96 98 100 100 100 100
74 62 66 75 81 90 99 98 92 64 72 68 62 57 62 76 88 88 87 84 66 45 43 44 44 47 46 43 45 53 62 48 49 48 51 54 53 56 62 79 85 79 88 84
72 60 80 87 97 93 94 94 88 71 71 62 56 60 63 74 76 78 70 62 50 40 40 40 43 45 46 46 47 50 49 42 42 45 44 44 47 48 48 48 52 65 77 77
68 67 73 96 95 92 94 94 85 76 67 63 55 56 57 55 55 51 50 47 40 37 37 35 37 40 42 44 49 49 48 45 40 42 44 47 45 45 42 47 61 62 79 77
63 71 86 95 94 96 94 96 90 73 65 60 59 58 54 51 54 52 54 49 40 38 36 34 33 34 35 39 51 56 54 50 50 45 46 56 53 51 47 45 46 75 71 72

GFSCGP_sfc_rhum_126.txt.gz
RH
18 22 20 16 14 15 16 14 16 14 12 14 16 14 11 11 21 28 27 30 32 34 33 34 42 47 51 52 55 54 59 56 37 30 70 81 84 80 77 65 70 78 81 86
21 25 16 13 15 16 18 20 20 16 13 14 14 14 12 13 27 30 32 36 38 39 39 41 44 51 59 61 60 60 58 58 57 50 42 73 80 80 71 64 63 73 79 83
22 17 16 18 18 16 18 21 20 21 16 15 17 17 13 28 31 33 36 40 42 46 49 50 48 52 56 61 65 63 64 62 63 62 52 52 69 81 79 68 61 74 80 84
18 15 16 18 20 17 25 17 18 21 27 34 21 41 24 24 37 43 45 50 52 51 51 52 55 53 56 60 63 69 67 67 64 66 68 74 83 89 76 69 57 72 82 84
21 21 23 22 17 17 26 22 26 28 32 34 30 36 46 37 55 52 53 56 56 56 60 61 61 62 58 60 68 76 74 74 75 77 76 85 86 85 82 67 58 63 82 83
24 17 20 21 19 22 23 28 29 29 29 48 29 48 86 76 62 59 61 63 60 61 63 66 66 70 74 74 80 82 86 80 80 82 86 88 88 87 83 69 58 60 75 86
24 22 16 18 28 24 25 35 48 46 53 42 26 33 68 52 54 61 74 76 66 67 73 75 82 88 88 86 87 90 91 88 84 89 91 92 92 94 87 76 60 61 74 84
25 33 20 22 29 25 27 30 46 54 58 50 29 45 74 48 53 58 59 79 68 70 76 86 98 97 93 86 89 96 95 92 87 90 94 91 92 96 97 95 94 91 92 85
48 30 20 23 24 23 32 35 30 54 44 66 50 76 58 52 62 69 75 73 84 78 81 92 98 97 91 97 99 98 96 93 89 92 93 93 94 95 97 97 97 97 95 94
39 71 28 22 22 23 28 24 49 60 84 65 41 90 94 89 89 89 91 92 90 84 85 92 97 96 94 98 99 98 97 96 93 92 91 91 93 94 96 95 97 98 96 97
34 73 38 25 32 28 36 42 48 51 58 76 81 92 84 94 96 88 89 93 94 94 94 96 96 98 98 97 100 100 98 98 96 92 90 90 92 93 93 94 96 98 95 92
35 54 64 40 23 24 26 32 38 63 58 76 91 95 77 76 77 77 84 93 96 96 97 98 98 95 98 98 98 100 99 96 98 90 89 92 91 91 93 93 94 93 94 94
48 60 66 48 35 34 33 36 40 47 59 79 87 91 65 66 74 74 89 88 95 94 95 95 96 95 97 97 99 99 98 95 91 90 88 92 96 92 93 92 90 89 90 91
59 58 71 87 92 63 61 50 46 57 93 88 87 93 76 75 81 79 75 80 90 91 96 96 96 97 97 98 97 97 96 88 86 86 93 96 96 96 94 93 93 92 89 89
51 91 67 63 62 55 59 72 64 62 68 88 90 84 76 77 84 78 71 67 63 72 72 82 91 94 92 90 91 93 94 84 79 85 90 94 98 93 95 95 93 92 93 90
48 89 98 89 62 59 77 97 83 64 67 74 66 82 69 63 68 73 69 60 60 61 66 70 73 77 88 82 79 75 75 80 78 79 82 83 89 88 86 88 88 86 88 89
61 72 84 71 52 56 88 94 89 62 52 57 74 73 63 66 73 78 70 63 64 62 61 82 86 83 81 80 74 81 74 74 76 80 79 79 78 79 82 80 83 87 88 86
58 72 82 70 78 89 87 55 49 47 47 47 56 59 54 66 71 72 66 67 64 60 57 68 90 87 82 74 73 73 72 74 81 81 80 78 78 76 75 76 82 85 84 89
34 68 84 77 62 84 69 53 51 53 60 48 52 53 56 62 72 84 66 62 59 55 52 49 54 71 76 76 67 70 82 77 77 88 87 85 81 81 83 85 87 85 87 91
32 60 74 71 67 64 82 52 50 49 85 50 51 55 58 59 84 92 72 70 58 44 42 42 40 40 44 54 58 64 76 84 82 80 90 90 88 89 89 89 90 90 85 92
75 85 84 80 67 69 63 64 60 86 90 52 50 54 55 66 80 76 65 67 53 39 39 39 40 43 41 39 45 53 54 67 77 68 66 76 87 85 86 86 84 86 88 86
68 70 78 72 70 80 66 76 96 80 60 55 59 68 77 76 76 77 76 81 46 38 36 36 40 42 40 39 42 47 51 39 40 49 56 58 62 65 66 77 81 80 83 85
74 55 87 81 86 77 93 93 72 59 79 72 72 62 65 74 83 83 82 78 44 34 32 32 34 38 40 39 41 47 50 41 41 43 51 53 53 50 55 66 76 79 78 80
55 47 84 78 82 84 99 98 92 84 92 83 70 61 65 76 74 75 68 48 39 31 29 28 30 31 37 38 40 46 47 43 44 46 49 50 53 52 52 57 60 78 81 80
56 51 70 92 83 78 95 99 97 97 93 80 63 54 56 57 53 42 39 36 33 30 30 30 34 36 37 38 41 43 46 48 48 49 50 58 57 57 55 66 77 76 87 80
52 65 79 94 82 76 94 100 96 96 95 76 60 52 44 43 45 42 39 34 32 34 32 33 38 41 40 42 48 50 50 51 58 58 58 65 66 64 61 61 65 74 78 72

GFSCGP_sfc_rhum_129.txt.gz
RH
27 38 40 31 26 22 22 23 22 22 17 20 23 23 19 23 39 45 49 50 51 50 45 44 46 47 48 50 52 55 61 64 65 66 70 77 80 79 92 84 76 80 88 92
32 37 26 22 19 22 22 26 29 24 19 22 24 24 32 39 44 50 54 58 58 55 53 51 52 53 54 55 54 55 58 65 66 66 67 73 78 80 80 86 78 82 81 91
36 30 21 21 24 24 23 24 27 27 25 26 28 32 48 45 44 45 51 56 57 59 62 61 59 60 60 60 60 59 59 65 70 69 68 70 76 82 89 82 86 77 82 83
28 21 20 22 23 24 33 21 25 31 40 55 31 57 51 52 53 54 59 66 66 65 65 65 66 66 67 68 67 65 68 70 70 75 79 85 90 91 87 86 81 81 78 83
33 29 27 29 27 18 23 33 33 36 44 48 42 62 63 56 73 68 70 72 72 71 70 72 72 71 71 72 71 70 70 74 74 80 80 77 81 84 87 84 81 78 84 82
32 25 26 27 23 26 27 34 37 38 44 76 42 44 86 85 82 77 75 79 74 71 67 69 74 75 79 79 85 79 77 82 84 84 82 88 91 93 89 86 84 82 83 86
32 28 20 21 29 32 32 46 81 78 81 69 39 58 88 75 75 77 82 85 72 70 73 80 86 87 84 91 95 95 95 95 95 92 87 89 92 93 91 88 86 86 85 80
45 57 32 22 25 34 38 39 72 80 91 82 43 74 94 70 68 66 65 78 73 75 84 87 90 89 89 96 97 96 95 95 95 93 90 91 92 95 93 96 96 94 93 91
64 62 34 26 28 30 36 45 34 64 65 90 86 78 78 65 73 71 79 75 84 87 89 91 90 88 92 98 99 97 95 95 95 95 90 91 92 95 97 96 98 97 97 91
60 78 37 29 30 29 34 31 67 83 92 91 75 98 98 97 93 89 94 92 90 89 90 91 91 90 96 99 99 94 92 96 96 96 92 91 92 92 94 92 96 97 98 96
49 76 55 40 38 37 37 44 65 75 78 95 97 94 88 98 97 95 94 90 94 96 95 94 93 92 94 97 96 97 97 98 99 97 96 94 94 90 90 93 93 95 96 96
49 71 78 52 35 34 33 44 56 91 76 90 96 98 87 84 82 80 89 90 95 94 95 95 95 93 92 95 97 98 98 99 100 100 100 97 91 91 92 93 92 92 94 95
58 74 89 68 51 51 49 42 46 62 76 90 96 95 71 72 79 76 87 89 96 96 92 91 94 95 96 95 97 98 99 99 100 100 100 94 91 91 93 95 96 95 92 91
63 76 85 97 89 91 99 85 52 74 99 94 93 96 92 80 83 81 75 90 92 91 87 86 88 91 90 88 90 94 95 98 99 97 87 93 94 91 90 89 96 99 97 98
58 92 83 77 70 64 68 94 69 74 76 84 95 93 86 80 84 78 78 78 73 78 79 81 87 89 87 85 87 79 77 77 80 86 87 88 88 90 88 89 90 92 96 99
55 92 98 92 64 69 80 93 81 77 75 84 77 87 74 76 76 73 80 67 67 67 75 72 75 81 84 78 74 77 75 76 75 77 81 80 80 80 90 94 94 90 90 88
68 89 98 86 67 88 88 84 87 74 72 72 86 81 76 73 76 75 76 69 68 65 73 87 90 89 83 81 77 81 76 75 75 78 77 78 78 81 81 80 85 87 88 88
70 84 92 94 76 95 88 66 67 60 51 65 73 76 72 77 74 77 78 76 71 67 68 77 86 90 86 77 76 84 82 75 80 81 79 77 79 82 82 82 84 88 90 89
45 83 94 94 88 85 75 61 64 62 69 61 68 73 77 78 80 86 73 75 73 65 63 62 64 74 79 73 66 77 86 86 75 88 90 83 80 80 84 88 89 89 90 90
41 73 88 91 87 89 88 74 62 58 96 59 60 72 78 83 97 96 78 77 81 54 53 50 48 47 50 61 60 64 80 75 78 76 80 90 83 83 81 85 89 88 86 91
58 74 86 89 93 88 75 76 68 89 91 62 55 60 66 85 94 85 76 77 75 47 47 48 48 48 47 47 52 61 60 73 72 67 63 74 79 85 84 83 82 88 89 88
57 89 96 93 91 89 80 83 93 85 74 76 75 78 87 85 85 84 82 86 68 46 42 43 48 48 47 47 50 57 61 50 50 59 67 66 74 71 80 85 85 84 87 87
91 79 93 92 96 90 98 95 84 76 86 87 92 89 90 93 89 90 91 88 51 38 40 38 42 44 45 46 49 58 59 52 53 57 64 67 66 69 72 87 87 88 89 88
71 69 93 92 92 96 99 97 90 91 92 87 86 93 92 88 81 81 79 70 44 35 38 38 41 46 51 50 50 55 59 57 57 60 63 66 69 67 80 77 83 88 94 90
76 72 89 94 92 93 98 100 97 97 96 93 93 85 72 66 66 61 43 39 36 36 40 45 51 52 54 56 60 61 63 65 67 65 63 72 74 75 74 84 96 85 96 88
75 83 93 95 85 88 93 95 90 90 93 91 94 91 67 51 45 41 41 39 39 44 46 50 53 56 61 60 67 71 70 70 79 79 70 79 82 86 78 86 86 75 84 73

GFSCGP_sfc_rhum_132.txt.gz
RH
30 39 42 34 32 28 30 28 26 25 20 27 26 27 43 57 58 64 65 64 61 59 54 53 53 54 55 55 56 56 60 59 61 65 72 73 78 79 82 85 79 84 81 77
36 43 30 27 28 32 30 26 28 27 23 27 30 46 58 55 59 63 66 68 65 64 63 59 59 60 61 63 64 64 63 62 64 66 69 74 76 79 81 81 80 79 87 82
38 35 24 25 30 32 28 27 28 28 34 35 35 42 62 54 55 58 63 64 66 70 70 67 64 66 67 70 70 68 70 70 68 69 72 73 74 83 86 84 87 85 86 92
33 26 28 30 30 28 35 23 26 36 45 56 40 64 64 61 68 68 72 76 75 73 69 67 69 72 74 73 71 74 69 68 67 68 72 78 80 84 82 88 88 86 78 84
37 32 32 35 32 26 30 35 39 43 46 54 45 72 73 64 75 80 79 78 76 73 74 75 76 75 74 72 76 71 72 71 73 76 80 81 85 77 72 78 88 86 84 80
38 32 34 34 27 28 31 40 42 48 51 80 50 58 84 92 90 81 80 79 78 76 77 78 76 76 72 72 73 74 81 81 78 88 93 88 89 81 78 80 90 86 87 87
37 36 29 26 35 31 31 50 80 81 88 77 47 64 93 85 81 83 86 85 82 82 86 86 88 85 79 81 81 83 86 90 80 91 95 95 91 91 93 90 87 92 89 89
53 63 38 33 30 34 38 45 74 80 85 82 45 65 94 78 71 72 72 83 76 87 84 88 90 89 86 86 88 93 96 95 91 95 96 94 89 93 94 90 93 90 92 95
60 57 37 26 30 29 39 47 38 65 72 91 83 87 75 72 78 84 85 76 88 84 85 91 92 90 88 94 98 98 97 95 85 96 96 95 90 92 95 96 97 98 95 93
62 73 40 36 32 33 34 32 61 84 83 92 87 92 96 95 95 93 94 93 94 91 92 92 92 91 88 95 99 96 97 93 89 89 96 96 95 91 92 94 97 97 98 95
59 77 56 40 42 44 44 51 65 69 82 93 97 91 90 93 97 97 94 93 97 96 94 93 92 91 88 89 91 92 96 95 97 96 96 96 97 95 93 93 93 94 94 93
55 76 84 53 38 38 39 50 55 89 79 91 95 92 90 92 89 82 89 89 96 94 94 91 92 91 89 88 89 93 93 96 98 99 99 97 97 98 96 95 93 91 92 92
56 82 91 56 56 71 78 63 54 69 80 88 92 88 87 81 82 77 84 96 95 93 91 92 90 90 89 87 89 86 96 96 98 99 100 99 100 99 98 96 92 90 89 89
65 79 84 85 87 86 89 80 88 85 96 92 92 97 95 92 93 79 80 92 93 94 92 92 91 90 88 84 86 82 82 86 99 99 100 100 99 100 99 92 92 92 90 92
62 91 84 75 69 68 71 72 77 92 81 90 86 93 94 92 86 78 80 84 80 88 81 87 92 89 88 83 79 76 74 74 73 79 90 99 100 99 98 94 90 87 88 89
62 84 94 72 67 76 80 73 74 78 77 86 80 89 84 82 76 77 82 71 73 74 76 76 85 76 82 76 76 74 74 76 72 72 76 78 80 81 90 93 87 87 87 87
69 83 98 82 59 74 94 86 88 80 73 71 87 81 84 84 75 75 78 70 70 71 76 83 91 91 79 76 74 82 78 69 77 74 70 66 76 80 81 82 85 85 87 89
74 76 88 92 75 92 70 69 72 70 63 73 78 81 77 79 79 81 80 79 71 69 71 75 87 86 88 73 72 76 70 73 76 79 74 68 65 74 78 79 85 90 87 87
55 81 97 89 85 79 78 71 74 78 75 70 78 82 82 81 82 88 75 77 80 68 69 65 66 78 77 77 72 70 78 74 74 83 86 80 74 72 76 82 84 86 86 87
51 62 88 97 87 88 83 76 64 62 94 68 74 83 87 88 94 94 83 77 78 58 54 53 53 52 56 62 66 71 77 79 80 79 82 88 82 83 84 84 86 83 84 90
66 80 81 86 87 78 77 76 73 88 84 74 69 75 82 93 93 88 76 78 78 49 48 48 50 54 54 53 59 69 70 77 76 73 71 78 87 84 85 86 85 87 86 85
63 74 79 88 93 82 86 80 84 86 88 83 80 75 83 88 90 81 82 86 53 47 45 44 49 53 52 52 58 67 74 63 61 69 71 72 76 80 78 86 86 86 86 86
80 72 89 88 88 95 96 96 88 78 88 96 89 83 83 92 95 87 88 75 50 38 41 42 48 52 54 54 58 70 71 68 64 67 73 74 69 74 78 87 89 89 88 88
96 71 94 92 95 96 98 95 92 84 90 85 82 88 93 94 90 80 71 53 45 38 41 44 47 52 51 55 56 65 69 72 66 65 73 74 74 73 78 80 80 89 92 88
81 76 91 94 97 94 91 98 94 87 86 86 83 84 87 80 68 64 44 40 41 45 47 48 53 49 54 55 63 72 71 73 66 60 68 80 79 83 80 82 93 87 98 89
77 88 91 91 88 88 90 92 94 94 89 85 89 88 74 71 79 46 44 43 46 52 51 53 54 54 58 60 67 73 74 73 80 61 70 82 84 86 81 84 77 69 83 89

GFSCGP_sfc_rhum_138.txt.gz
RH
38 36 39 34 33 31 36 41 42 36 29 30 30 35 67 74 73 76 77 78 75 72 64 61 60 63 66 68 68 69 71 69 70 72 71 71 74 72 70 70 74 78 82 83
36 39 29 32 34 38 41 46 48 38 30 29 33 42 71 68 73 81 81 82 80 76 71 66 66 68 72 74 72 69 67 67 64 64 67 68 69 69 66 65 68 71 79 84
36 31 27 32 36 40 43 47 46 40 36 41 43 52 78 71 73 73 76 80 79 82 81 77 73 74 76 79 73 66 67 66 67 66 67 71 69 72 73 67 67 71 73 80
34 29 34 39 38 37 48 36 37 37 49 58 44 61 62 80 82 79 81 87 88 87 83 82 80 80 82 74 66 66 66 67 67 68 72 78 83 84 80 84 72 70 68 71
35 34 33 34 32 35 39 35 38 43 52 66 57 72 78 79 87 85 88 85 89 88 89 86 86 82 76 69 69 69 68 70 68 68 71 85 90 88 87 90 89 76 75 69
35 36 38 38 35 36 35 40 48 64 61 79 48 53 64 91 85 86 85 88 88 86 85 84 80 82 79 73 72 70 72 73 72 76 74 88 93 94 95 90 89 83 81 80
44 42 38 37 40 39 42 52 74 76 91 69 58 69 60 87 86 84 92 90 88 87 90 90 90 90 86 84 84 79 79 80 75 80 82 82 86 91 90 93 92 91 87 86
55 53 45 39 40 42 46 49 69 79 90 73 58 73 75 82 78 77 78 91 86 89 90 92 93 93 92 90 89 88 83 86 82 83 86 87 85 93 90 93 94 92 92 90
64 61 42 39 41 40 42 58 46 71 73 93 81 74 89 81 85 87 90 86 91 90 92 94 93 92 93 93 92 92 88 85 81 82 90 95 89 88 96 96 94 95 92 89
53 75 49 45 43 37 45 42 68 93 96 94 84 94 85 97 93 96 96 97 93 90 90 92 93 92 91 93 92 89 87 86 85 85 90 93 96 92 96 94 96 96 92 91
60 74 60 55 52 50 54 62 75 79 85 97 95 89 88 92 92 93 96 96 95 95 94 94 93 93 94 92 92 90 88 88 87 86 95 96 96 96 95 95 96 96 93 93
60 76 84 59 47 61 57 69 83 96 94 93 97 91 91 87 88 89 95 93 95 95 94 94 93 94 93 92 91 89 88 87 85 84 88 95 96 95 94 95 91 93 96 90
63 74 87 62 64 62 77 84 88 92 97 94 99 90 86 83 86 89 96 95 94 95 91 92 93 93 94 91 91 88 86 86 82 81 85 89 95 94 96 96 95 94 94 94
67 76 72 83 75 83 90 74 67 79 98 90 78 69 77 94 94 93 92 92 94 94 94 95 94 94 93 92 90 87 84 81 80 78 81 86 92 94 96 96 96 96 95 94
72 92 90 84 81 82 79 80 75 74 73 91 73 72 60 85 92 90 89 86 86 86 82 94 96 95 94 91 89 83 81 78 73 72 74 82 84 90 91 91 94 95 94 96
69 87 93 93 72 76 78 74 70 64 67 76 68 70 78 92 92 90 83 79 76 69 71 79 79 82 88 82 83 82 81 81 76 72 73 70 72 68 88 88 92 89 93 95
74 82 94 80 67 76 79 77 72 72 74 73 83 73 91 94 86 87 85 74 71 68 70 82 91 88 85 87 81 89 85 81 82 78 73 72 72 73 72 70 76 87 86 88
80 82 82 88 86 94 65 66 70 76 73 76 79 87 83 86 89 86 81 78 74 69 69 77 93 89 89 86 85 84 84 83 83 85 80 75 72 74 71 74 76 79 83 88
70 82 92 96 86 70 60 57 85 86 77 76 78 93 94 90 85 93 79 75 79 76 73 75 76 84 85 86 84 83 89 88 84 89 92 86 81 77 78 80 81 80 82 86
70 74 84 97 96 92 70 78 73 73 86 81 84 92 90 84 96 95 86 83 75 67 63 61 59 60 66 70 77 82 90 91 92 87 88 90 86 90 89 88 86 81 77 86
83 94 95 91 93 84 68 73 73 91 76 84 80 85 84 86 92 92 86 82 68 57 56 54 53 58 61 64 71 83 83 88 88 79 77 83 88 89 90 90 88 87 85 83
72 90 96 91 95 89 81 78 83 81 88 86 82 83 82 93 90 86 81 76 60 55 51 46 53 57 57 66 71 79 85 72 71 74 77 76 76 79 83 90 90 89 87 87
81 77 84 80 82 88 89 95 90 82 81 86 84 82 87 87 86 88 83 77 60 49 47 42 42 50 60 65 71 79 77 67 64 67 70 74 68 65 70 79 84 92 90 86
85 78 88 85 84 88 91 95 87 81 88 86 83 84 82 88 81 79 77 66 56 50 46 39 42 48 61 67 67 72 70 65 58 62 64 64 68 61 60 71 74 88 88 85
81 88 94 94 89 90 89 92 91 90 85 85 83 83 79 73 68 61 69 78 56 52 45 42 42 46 59 65 71 72 71 67 54 57 62 67 60 60 68 68 77 76 86 74
91 93 95 87 82 86 87 94 89 92 92 90 88 90 71 61 59 72 88 89 55 57 48 44 42 46 56 68 73 73 70 60 59 56 64 73 67 70 67 74 68 63 69 63

GFSCGP_sfc_rhum_141.txt.gz
RH
30 28 30 29 28 25 28 32 33 30 25 29 29 22 46 53 53 57 56 54 54 55 52 50 53 53 56 58 59 58 60 61 59 58 62 64 65 61 58 54 60 62 66 71
28 35 27 26 29 31 34 36 36 32 27 29 25 25 46 53 58 58 56 54 57 55 54 54 54 55 61 61 60 59 59 60 59 60 64 66 66 65 61 60 61 63 66 70
32 28 24 26 30 35 36 38 38 34 29 29 33 29 50 58 62 61 60 60 59 61 61 59 57 58 60 60 61 60 61 60 62 64 61 64 65 68 68 64 67 67 74 76
29 26 29 32 31 28 35 29 32 34 35 36 32 38 37 57 63 65 64 64 63 62 60 58 58 57 60 61 60 60 62 62 62 66 68 73 77 80 73 74 72 72 72 77
30 29 29 30 28 29 30 30 33 34 36 43 37 46 41 64 64 67 66 67 65 62 64 61 59 59 58 60 61 63 63 66 67 68 68 72 79 75 70 72 80 77 77 77
31 28 29 29 31 31 30 33 38 50 44 50 37 38 36 56 64 68 70 70 68 62 61 61 60 60 59 57 62 64 65 66 69 70 68 74 80 82 83 80 83 79 80 80
35 33 30 32 32 32 32 40 48 53 62 47 46 48 38 60 65 65 80 74 65 64 63 64 68 71 68 69 66 64 66 69 69 71 72 76 82 86 87 89 91 90 88 85
40 40 36 31 31 33 36 37 45 72 62 50 38 49 51 66 66 66 68 83 64 66 68 72 88 80 76 74 76 75 71 70 68 75 74 73 76 88 84 89 92 90 92 90
51 48 34 32 32 30 36 44 38 53 50 73 53 51 77 71 74 75 76 73 74 70 74 85 86 80 80 91 97 84 77 68 69 74 75 77 76 88 87 88 84 90 90 89
43 59 42 40 34 32 31 32 52 66 85 73 59 76 81 94 86 92 95 91 82 73 76 83 88 83 82 93 97 81 72 75 70 70 77 76 77 82 80 81 82 86 94 95
47 65 46 43 40 40 39 48 59 59 62 79 80 75 79 99 100 98 93 91 84 84 88 86 88 86 84 89 93 91 86 87 86 75 79 79 80 80 81 85 87 96 93 96
50 64 59 45 38 54 56 55 61 75 79 88 89 87 78 73 76 78 93 90 87 84 86 88 86 87 87 86 87 91 89 89 88 86 83 83 87 84 89 92 91 94 94 87
52 58 59 39 59 50 60 67 73 82 85 87 86 84 74 74 75 75 94 89 87 86 84 85 87 88 88 86 91 90 89 85 85 85 87 85 90 90 93 96 96 95 95 94
59 64 60 64 60 56 65 58 58 65 90 77 77 73 65 76 81 84 84 84 84 86 86 84 87 88 85 85 86 80 76 78 82 81 85 87 90 90 92 93 94 96 96 95
64 80 73 68 64 64 66 72 64 64 66 77 71 64 60 57 73 82 83 79 73 77 74 77 83 86 85 79 77 66 61 59 55 58 63 79 83 84 85 88 92 90 93 94
63 82 83 85 62 61 71 78 70 64 66 67 62 64 52 68 80 85 78 70 68 60 64 59 63 62 75 63 62 59 60 60 56 53 56 53 53 54 76 82 87 88 90 91
66 73 79 70 57 61 70 76 75 55 54 54 60 51 70 77 76 79 76 64 62 58 62 70 78 74 71 68 64 70 64 59 60 58 54 55 53 54 56 55 67 77 82 88
73 75 73 72 73 80 64 46 52 58 53 55 55 62 67 70 74 74 68 64 61 56 59 70 85 79 74 67 67 65 63 62 67 67 59 57 56 56 55 55 60 68 68 78
65 68 87 92 69 60 52 44 55 74 58 48 60 72 77 76 71 81 67 60 61 58 58 58 62 76 76 75 66 66 73 69 69 81 83 68 63 61 63 66 67 66 70 75
68 66 84 93 84 75 52 54 60 62 62 66 68 73 76 70 75 73 71 67 63 54 50 48 48 52 55 63 64 67 78 83 80 77 82 85 76 81 80 77 78 70 66 80
77 81 88 83 83 60 53 61 61 76 70 70 69 68 69 67 69 77 67 70 57 45 43 43 45 52 55 54 56 65 63 80 76 64 61 72 77 81 81 84 75 80 78 78
52 70 82 76 84 79 66 69 76 73 71 72 70 70 70 77 82 78 72 72 50 44 39 36 42 52 57 54 51 58 62 55 53 55 58 56 56 62 65 77 77 76 78 83
72 54 67 64 62 69 75 75 72 73 71 72 70 68 71 82 85 84 83 72 53 35 28 30 38 52 57 57 55 55 58 52 52 50 50 46 43 48 55 64 69 70 70 72
59 63 78 74 73 71 77 78 81 76 73 71 68 72 77 82 77 73 64 56 47 33 28 29 39 51 60 58 57 59 56 48 48 49 44 41 45 46 48 48 48 59 63 65
57 73 78 89 78 78 74 78 82 80 74 74 71 71 72 70 66 59 60 66 43 34 30 30 36 48 58 59 60 55 52 46 46 47 44 42 44 43 41 43 54 54 67 59
70 72 86 79 70 71 77 84 82 83 81 77 77 74 67 61 64 66 84 61 43 38 32 32 34 47 57 59 60 58 49 45 45 45 45 50 49 50 48 45 43 58 63 60

GFSCGP_sfc_rhum_144.txt.gz
RH
21 22 20 22 21 21 21 22 20 17 15 21 20 18 20 30 32 35 34 34 34 36 36 36 38 39 41 43 46 46 49 51 48 44 47 48 49 47 48 45 52 54 54 60
23 22 21 19 21 22 22 24 22 19 20 22 18 18 18 27 31 31 33 35 36 36 36 38 37 38 43 45 48 47 47 48 47 44 47 49 52 51 50 50 54 58 63 73
26 23 21 21 22 25 22 24 22 22 20 18 22 18 24 30 34 38 40 38 38 41 42 40 39 39 40 44 48 47 48 48 50 54 45 48 48 50 52 54 55 57 63 67
24 20 22 23 22 20 25 20 22 23 23 23 22 20 20 27 36 42 40 41 41 41 42 40 40 39 40 43 45 46 49 48 48 54 53 60 57 65 60 62 57 61 66 69
24 23 24 24 22 22 24 23 24 25 26 30 22 31 23 29 30 38 40 45 44 44 45 43 42 39 36 40 42 46 49 48 50 54 58 58 65 62 65 64 66 64 64 68
22 20 21 22 23 24 24 26 28 31 28 34 23 25 18 26 36 37 45 48 47 44 43 42 42 41 38 38 45 46 47 48 51 55 58 64 72 72 76 70 70 64 62 68
23 23 21 24 26 25 22 28 33 35 46 33 30 31 28 28 42 46 62 53 47 46 45 44 49 52 47 45 48 50 48 49 52 57 61 65 71 75 81 81 82 78 74 74
21 34 25 24 24 26 28 27 34 49 44 34 23 32 37 46 48 48 50 72 48 49 51 56 88 60 53 53 64 60 52 52 53 58 64 64 66 76 77 82 84 83 84 84
32 31 24 26 23 22 25 28 29 44 36 49 34 28 54 49 53 56 57 56 62 51 55 76 83 61 60 89 99 70 60 53 58 62 65 66 66 70 77 76 78 84 89 88
33 46 28 27 27 24 25 23 37 44 74 49 26 42 68 85 67 78 100 92 84 56 57 71 96 70 65 100 100 74 59 65 59 57 67 66 71 69 70 74 83 78 89 94
31 52 30 30 29 24 26 26 34 38 38 58 64 59 56 96 100 100 100 100 98 91 100 82 97 85 75 82 100 100 81 84 85 68 66 72 77 76 72 76 85 85 84 97
35 40 34 28 21 30 32 32 40 62 52 63 92 85 54 54 56 61 100 100 100 83 100 96 87 89 96 81 83 99 98 99 98 85 80 72 79 81 82 86 89 88 97 96
39 36 35 25 33 40 40 43 44 47 63 74 88 90 50 50 54 54 94 100 100 99 95 100 99 90 95 83 97 99 98 84 86 100 98 82 85 84 93 98 93 99 98 96
40 33 39 38 38 36 46 38 36 42 88 68 61 65 45 39 44 54 63 80 90 96 94 97 96 94 86 83 84 63 59 63 84 78 96 89 95 94 96 96 96 95 94 96
38 53 45 40 36 38 40 44 40 38 42 57 66 47 37 34 38 40 52 72 70 76 65 76 86 91 82 64 55 45 43 43 40 42 48 77 99 97 89 91 91 92 92 94
47 69 80 84 44 42 52 71 48 46 45 47 42 46 33 34 51 63 65 64 58 57 54 50 52 51 58 45 43 42 42 45 41 39 42 41 41 41 67 74 78 74 86 88
50 49 60 49 32 39 55 73 73 43 32 36 46 38 33 43 51 63 65 57 55 51 51 56 69 60 56 50 48 51 45 45 45 43 41 40 40 41 44 44 49 58 59 78
44 47 46 50 44 70 49 29 28 32 31 30 31 30 28 43 58 63 58 55 53 48 50 67 88 72 60 51 49 49 46 47 56 56 47 45 44 44 44 46 47 54 53 58
40 46 62 68 48 41 33 28 32 38 40 33 43 40 53 56 58 70 57 50 51 49 48 52 57 76 68 60 49 51 59 54 57 74 76 59 55 52 54 56 55 53 58 62
43 54 68 63 79 63 32 27 39 40 54 47 48 52 58 55 63 64 61 54 52 46 41 40 39 40 42 47 47 52 68 74 72 69 76 79 67 75 71 69 72 62 56 75
66 66 80 70 68 45 27 40 44 70 64 53 50 51 55 58 63 65 55 60 50 38 36 35 34 34 36 37 40 44 49 73 64 49 47 59 71 75 79 78 67 75 73 71
44 50 65 56 66 68 42 55 58 56 57 54 53 55 66 57 66 64 63 69 43 35 32 28 33 36 36 33 33 36 41 38 37 41 38 39 45 51 51 66 66 68 71 73
54 36 42 43 42 43 48 45 42 52 50 51 64 53 58 67 83 90 86 67 44 30 23 21 26 36 38 34 31 36 40 37 38 33 32 33 36 38 38 46 54 56 58 62
43 37 60 58 58 38 37 39 51 52 64 58 54 57 60 72 72 71 63 53 39 23 18 19 28 33 39 39 38 38 38 35 34 31 28 29 31 29 32 34 35 44 52 54
42 46 53 63 50 47 45 48 54 60 62 61 55 56 62 61 60 54 50 45 37 25 20 22 28 33 37 37 38 38 36 34 31 30 28 30 32 32 29 38 44 45 62 56
39 49 69 74 50 52 57 58 64 69 66 58 60 62 56 53 53 49 52 54 36 28 22 21 27 33 37 38 38 37 34 32 32 29 32 41 39 39 37 36 38 60 60 62

GFSCGP_sfc_rhum_147.txt.gz
RH
15 20 16 13 18 17 15 15 14 11 10 14 15 14 11 17 18 21 23 24 25 28 28 30 33 32 34 36 39 40 42 45 43 40 45 43 45 42 42 40 46 50 52 58
18 19 14 16 16 17 16 17 15 12 13 18 14 13 11 16 19 18 21 24 26 28 28 31 32 33 36 38 40 39 39 42 42 41 44 44 46 43 42 41 47 50 56 65
20 14 17 18 15 19 17 18 17 16 12 13 15 16 13 15 18 22 26 25 28 30 32 33 33 34 35 38 40 37 39 40 43 49 42 45 45 45 46 48 49 50 56 64
18 15 20 17 17 16 19 16 18 17 18 19 15 22 13 17 22 28 29 31 30 32 33 33 34 34 34 37 38 38 39 39 41 49 50 58 53 55 54 56 52 54 58 61
19 18 19 20 16 17 16 20 19 18 20 20 16 20 14 18 22 26 29 32 35 36 36 35 35 34 31 34 37 40 40 38 44 49 56 58 60 56 54 57 60 59 59 62
18 15 16 15 16 18 18 20 20 21 23 32 17 18 16 18 23 23 30 35 36 36 36 34 35 35 34 34 39 41 40 37 44 50 57 61 63 63 65 64 65 63 64 64
17 17 14 17 20 20 20 20 29 28 36 31 20 23 20 25 31 31 41 40 38 38 38 37 40 43 40 40 42 42 38 38 44 52 58 60 62 64 70 70 71 70 68 72
19 27 18 18 18 19 19 21 27 33 34 28 17 23 28 35 36 37 40 52 38 42 42 47 74 49 44 46 55 50 41 39 42 49 58 60 62 65 67 72 75 76 77 81
21 19 19 17 17 16 18 24 23 37 29 41 28 20 40 33 40 42 44 46 49 43 46 66 66 51 50 82 98 60 51 43 44 46 54 62 65 68 73 73 73 79 77 80
23 39 20 19 20 17 20 16 33 34 63 45 24 29 54 73 47 54 98 64 66 47 45 64 86 58 53 100 96 69 54 58 56 48 50 55 67 70 68 71 78 80 77 80
21 41 22 22 23 17 20 26 24 24 30 49 52 53 39 90 100 98 100 100 94 83 99 68 98 71 58 71 98 100 75 74 83 60 56 58 66 70 70 76 80 86 85 82
23 31 33 20 16 16 22 26 23 43 41 46 74 82 47 36 38 50 81 100 100 76 100 93 75 88 90 68 74 100 100 100 98 76 69 63 68 67 72 79 80 83 90 88
26 23 31 21 19 24 30 25 29 35 44 62 84 88 33 32 38 38 56 100 100 99 94 100 96 84 95 71 100 100 97 74 74 100 100 74 81 76 92 93 83 89 91 90
33 22 28 35 27 24 32 27 26 32 82 62 54 48 31 26 27 26 26 78 89 95 100 95 98 95 76 71 76 49 47 50 59 59 100 100 100 100 100 99 94 90 93 92
30 43 32 27 25 25 26 30 30 31 34 45 54 34 27 24 28 28 38 51 70 77 66 73 79 84 81 53 44 36 36 37 34 36 41 67 99 100 100 100 99 89 87 92
26 55 60 71 37 30 37 53 33 33 35 37 34 35 23 21 35 38 50 54 57 57 53 53 55 54 50 37 34 36 37 40 36 35 38 37 38 38 61 63 70 62 82 82
38 48 50 48 25 25 40 81 60 31 26 27 33 26 23 28 32 45 51 52 59 56 50 51 53 49 46 41 39 42 38 41 41 38 38 38 40 41 43 42 46 52 56 69
38 43 42 45 38 58 42 25 21 24 22 19 20 38 34 41 42 51 50 50 50 45 46 62 89 67 49 43 42 42 38 42 51 52 45 44 44 45 44 45 46 51 51 54
30 38 50 56 43 33 25 22 24 29 31 23 33 32 34 43 47 59 51 46 47 44 45 53 61 76 56 47 41 45 50 46 51 68 73 55 53 51 52 54 52 50 54 59
28 37 51 54 62 57 29 20 24 29 44 37 35 41 44 40 60 95 64 47 47 42 40 40 40 39 39 41 40 46 60 70 60 60 68 77 62 72 66 62 66 56 52 67
51 47 59 58 61 42 22 28 30 52 62 48 42 42 44 55 62 60 49 54 47 37 34 33 31 28 28 30 34 38 45 70 52 40 39 50 63 79 81 77 60 70 67 66
40 49 56 53 59 60 22 35 44 38 37 37 39 45 59 60 74 70 56 62 41 34 31 28 28 28 27 26 27 27 32 29 30 31 33 36 39 40 40 56 60 60 66 76
46 29 37 32 40 36 37 38 32 31 37 42 47 50 61 60 78 82 87 62 40 30 26 23 24 29 28 24 24 27 32 28 29 26 28 29 28 29 31 38 46 54 54 59
29 24 51 48 44 32 31 30 29 30 43 46 48 48 59 76 71 71 64 51 39 26 22 19 24 28 31 29 28 29 31 27 27 26 26 26 27 26 29 29 33 45 54 55
36 41 46 51 38 35 34 34 42 40 41 51 49 48 51 55 59 57 52 45 34 26 22 20 23 28 30 28 30 30 28 28 26 26 26 29 30 29 28 37 40 42 63 59
33 41 63 69 44 48 44 44 45 50 50 49 50 53 49 50 53 50 48 43 34 30 23 21 24 28 27 28 29 29 28 27 27 27 31 42 38 38 36 37 43 60 61 62